Time,TemperatureF,DewpointF,PressureIn,WindDirection,WindDirectionDegrees,WindSpeedMPH,WindSpeedGustMPH,Humidity,HourlyPrecipIn,Conditions,Clouds,dailyrainin,SoftwareType,DateUTC
2013-08-23 00:00:00,74.5,71.4,29.89,West,269,7.0,9.0,90,0.00,,,0.02,meteohub,2013-08-23 04:00:00,
2013-08-23 00:01:00,74.7,71.6,29.88,SW,229,7.0,9.0,90,0.00,,,0.02,meteohub,2013-08-23 04:01:00,
2013-08-23 00:02:00,74.5,71.4,29.88,WSW,240,5.0,9.0,90,0.00,,,0.02,meteohub,2013-08-23 04:02:00,
2013-08-23 00:06:00,74.7,71.2,29.88,WSW,244,4.0,11.0,89,0.00,,,0.00,meteohub,2013-08-23 04:06:00,
2013-08-23 00:07:00,74.7,71.2,29.89,WSW,244,5.0,11.0,89,0.00,,,0.00,meteohub,2013-08-23 04:07:00,
2013-08-23 00:11:00,74.8,71.4,29.88,WSW,244,7.0,11.0,89,0.00,,,0.00,meteohub,2013-08-23 04:11:00,
2013-08-23 00:12:00,74.8,71.4,29.88,WSW,253,5.0,11.0,89,0.00,,,0.00,meteohub,2013-08-23 04:12:00,
2013-08-23 00:16:00,75.0,71.2,29.88,WSW,240,10.0,11.0,88,0.00,,,0.00,meteohub,2013-08-23 04:16:00,
2013-08-23 00:17:00,75.0,71.2,29.88,WSW,247,7.0,11.0,88,0.00,,,0.00,meteohub,2013-08-23 04:17:00,
2013-08-23 00:18:00,75.0,71.2,29.89,SW,236,5.0,11.0,88,0.00,,,0.00,meteohub,2013-08-23 04:18:00,
2013-08-23 00:21:00,75.0,71.2,29.89,WSW,248,3.0,11.0,88,0.00,,,0.00,meteohub,2013-08-23 04:21:00,
2013-08-23 00:22:00,75.0,71.2,29.89,WSW,239,4.0,11.0,88,0.00,,,0.00,meteohub,2013-08-23 04:22:00,
2013-08-23 00:24:00,75.0,70.9,29.88,WSW,246,5.0,11.0,87,0.00,,,0.00,meteohub,2013-08-23 04:24:00,
2013-08-23 00:26:00,75.0,70.9,29.89,WSW,255,7.0,11.0,87,0.00,,,0.00,meteohub,2013-08-23 04:26:00,
2013-08-23 00:27:00,75.0,70.9,29.89,WSW,254,10.0,11.0,87,0.00,,,0.00,meteohub,2013-08-23 04:27:00,
2013-08-23 00:28:00,75.0,70.9,29.88,SW,234,4.0,11.0,87,0.00,,,0.00,meteohub,2013-08-23 04:28:00,
2013-08-23 00:29:00,75.0,70.9,29.89,SW,235,5.0,11.0,87,0.00,,,0.00,meteohub,2013-08-23 04:29:00,
2013-08-23 00:32:00,75.0,70.9,29.88,SW,236,3.0,11.0,87,0.00,,,0.00,meteohub,2013-08-23 04:32:00,
2013-08-23 00:33:00,75.0,70.9,29.88,WSW,250,7.0,11.0,87,0.00,,,0.00,meteohub,2013-08-23 04:33:00,
2013-08-23 00:34:00,75.0,70.5,29.88,SSW,202,4.0,11.0,86,0.00,,,0.00,meteohub,2013-08-23 04:34:00,
2013-08-23 00:37:00,75.0,70.5,29.88,West,259,6.0,10.0,86,0.00,,,0.00,meteohub,2013-08-23 04:37:00,
2013-08-23 00:38:00,75.0,70.5,29.88,WSW,242,4.0,10.0,86,0.00,,,0.00,meteohub,2013-08-23 04:38:00,
2013-08-23 00:40:00,75.0,70.5,29.88,SW,236,5.0,10.0,86,0.00,,,0.00,meteohub,2013-08-23 04:40:00,
2013-08-23 00:43:00,75.0,70.2,29.89,WSW,252,5.0,10.0,85,0.00,,,0.00,meteohub,2013-08-23 04:43:00,
2013-08-23 00:44:00,75.0,70.2,29.88,SW,231,6.0,10.0,85,0.00,,,0.00,meteohub,2013-08-23 04:44:00,
2013-08-23 00:45:00,75.0,70.2,29.88,WSW,239,4.0,10.0,85,0.00,,,0.00,meteohub,2013-08-23 04:45:00,
2013-08-23 00:48:00,75.0,70.2,29.88,West,270,6.0,11.0,85,0.00,,,0.00,meteohub,2013-08-23 04:48:00,
2013-08-23 00:49:00,75.0,70.2,29.88,SSW,211,7.0,11.0,85,0.00,,,0.00,meteohub,2013-08-23 04:49:00,
2013-08-23 00:50:00,75.0,70.2,29.88,SW,219,5.0,11.0,85,0.00,,,0.00,meteohub,2013-08-23 04:50:00,
2013-08-23 00:53:00,75.0,70.2,29.88,SW,236,6.0,11.0,85,0.00,,,0.00,meteohub,2013-08-23 04:53:00,
2013-08-23 00:54:00,75.0,70.2,29.88,WSW,246,8.0,11.0,85,0.00,,,0.00,meteohub,2013-08-23 04:54:00,
2013-08-23 00:55:00,75.0,70.2,29.88,West,269,7.0,11.0,85,0.00,,,0.00,meteohub,2013-08-23 04:55:00,
2013-08-23 00:58:00,74.8,70.0,29.88,West,279,6.0,10.0,85,0.00,,,0.00,meteohub,2013-08-23 04:58:00,
2013-08-23 00:59:00,74.8,70.0,29.88,WSW,243,6.0,10.0,85,0.00,,,0.00,meteohub,2013-08-23 04:59:00,
2013-08-23 01:00:00,74.8,70.0,29.88,West,264,6.0,10.0,85,0.00,,,0.00,meteohub,2013-08-23 05:00:00,
2013-08-23 01:03:00,74.8,70.0,29.88,WSW,248,8.0,10.0,85,0.00,,,0.00,meteohub,2013-08-23 05:03:00,
2013-08-23 01:04:00,74.8,70.0,29.88,SW,234,4.0,10.0,85,0.00,,,0.00,meteohub,2013-08-23 05:04:00,
2013-08-23 01:05:00,74.8,70.0,29.88,West,269,7.0,10.0,85,0.00,,,0.00,meteohub,2013-08-23 05:05:00,
2013-08-23 01:09:00,74.7,69.8,29.88,WSW,249,8.0,10.0,85,0.00,,,0.00,meteohub,2013-08-23 05:09:00,
2013-08-23 01:10:00,74.7,69.8,29.89,WSW,244,7.0,11.0,85,0.00,,,0.00,meteohub,2013-08-23 05:10:00,
2013-08-23 01:11:00,74.7,69.8,29.89,WSW,252,7.0,11.0,85,0.00,,,0.00,meteohub,2013-08-23 05:11:00,
2013-08-23 01:14:00,74.5,69.6,29.88,WSW,256,7.0,11.0,85,0.00,,,0.00,meteohub,2013-08-23 05:14:00,
2013-08-23 01:16:00,74.5,69.6,29.88,WSW,242,9.0,13.0,85,0.00,,,0.00,meteohub,2013-08-23 05:16:00,
2013-08-23 01:17:00,74.5,69.6,29.88,West,273,4.0,13.0,85,0.00,,,0.00,meteohub,2013-08-23 05:17:00,
2013-08-23 01:19:00,74.5,70.0,29.88,WSW,247,5.0,13.0,86,0.00,,,0.00,meteohub,2013-08-23 05:19:00,
2013-08-23 01:21:00,74.5,70.0,29.88,West,263,7.0,13.0,86,0.00,,,0.00,meteohub,2013-08-23 05:21:00,
2013-08-23 01:22:00,74.3,69.8,29.88,WSW,242,8.0,13.0,86,0.00,,,0.00,meteohub,2013-08-23 05:22:00,
2013-08-23 01:24:00,74.1,69.6,29.88,WSW,246,9.0,13.0,86,0.00,,,0.00,meteohub,2013-08-23 05:24:00,
2013-08-23 01:26:00,74.1,69.6,29.88,WSW,246,8.0,11.0,86,0.00,,,0.00,meteohub,2013-08-23 05:26:00,
2013-08-23 01:27:00,74.1,70.0,29.88,SW,229,8.0,11.0,87,0.00,,,0.00,meteohub,2013-08-23 05:27:00,
2013-08-23 01:29:00,73.9,69.8,29.88,SW,233,7.0,11.0,87,0.00,,,0.00,meteohub,2013-08-23 05:29:00,
2013-08-23 01:31:00,73.9,69.8,29.88,WSW,245,10.0,13.0,87,0.00,,,0.00,meteohub,2013-08-23 05:31:00,
2013-08-23 01:32:00,73.9,69.8,29.88,SW,235,7.0,13.0,87,0.00,,,0.00,meteohub,2013-08-23 05:32:00,
2013-08-23 01:35:00,73.8,69.6,29.88,WNW,283,8.0,13.0,87,0.00,,,0.00,meteohub,2013-08-23 05:35:00,
2013-08-23 01:36:00,73.8,69.6,29.88,WSW,252,9.0,13.0,87,0.00,,,0.00,meteohub,2013-08-23 05:36:00,
2013-08-23 01:37:00,73.8,69.6,29.88,SSW,207,5.0,13.0,87,0.00,,,0.00,meteohub,2013-08-23 05:37:00,
2013-08-23 01:38:00,73.8,69.6,29.88,WSW,254,10.0,13.0,87,0.00,,,0.00,meteohub,2013-08-23 05:38:00,
2013-08-23 01:40:00,73.8,69.6,29.88,WSW,237,6.0,13.0,87,0.00,,,0.00,meteohub,2013-08-23 05:40:00,
2013-08-23 01:41:00,73.8,69.6,29.88,WSW,257,7.0,13.0,87,0.00,,,0.00,meteohub,2013-08-23 05:41:00,
2013-08-23 01:42:00,73.8,69.6,29.88,SW,235,5.0,13.0,87,0.00,,,0.00,meteohub,2013-08-23 05:42:00,
2013-08-23 01:43:00,73.8,70.0,29.88,WSW,238,6.0,13.0,88,0.00,,,0.00,meteohub,2013-08-23 05:43:00,
2013-08-23 01:44:00,73.8,70.0,29.88,WSW,238,9.0,13.0,88,0.00,,,0.00,meteohub,2013-08-23 05:44:00,
2013-08-23 01:45:00,73.8,69.6,29.88,West,269,6.0,13.0,87,0.00,,,0.00,meteohub,2013-08-23 05:45:00,
2013-08-23 01:47:00,73.6,69.8,29.88,SW,236,6.0,13.0,88,0.00,,,0.00,meteohub,2013-08-23 05:47:00,
2013-08-23 01:48:00,73.6,69.8,29.87,SW,220,4.0,13.0,88,0.00,,,0.00,meteohub,2013-08-23 05:48:00,
2013-08-23 01:49:00,73.6,69.8,29.88,SW,227,4.0,13.0,88,0.00,,,0.00,meteohub,2013-08-23 05:49:00,
2013-08-23 01:50:00,73.6,69.8,29.88,SW,233,3.0,11.0,88,0.00,,,0.00,meteohub,2013-08-23 05:50:00,
2013-08-23 01:53:00,73.6,69.8,29.88,WSW,238,3.0,11.0,88,0.00,,,0.00,meteohub,2013-08-23 05:53:00,
2013-08-23 01:55:00,73.6,69.8,29.88,WSW,238,8.0,11.0,88,0.00,,,0.00,meteohub,2013-08-23 05:55:00,
2013-08-23 01:58:00,73.4,70.0,29.87,West,261,4.0,11.0,89,0.00,,,0.00,meteohub,2013-08-23 05:58:00,
2013-08-23 02:01:00,73.2,69.8,29.87,WSW,242,5.0,11.0,89,0.00,,,0.00,meteohub,2013-08-23 06:01:00,
2013-08-23 02:03:00,73.2,69.8,29.88,West,276,4.0,11.0,89,0.00,,,0.00,meteohub,2013-08-23 06:03:00,
2013-08-23 02:06:00,73.0,69.6,29.88,West,274,4.0,11.0,89,0.00,,,0.00,meteohub,2013-08-23 06:06:00,
2013-08-23 02:08:00,73.0,69.6,29.87,WNW,295,4.0,11.0,89,0.00,,,0.00,meteohub,2013-08-23 06:08:00,
2013-08-23 02:09:00,73.0,69.6,29.87,SW,225,5.0,11.0,89,0.00,,,0.00,meteohub,2013-08-23 06:09:00,
2013-08-23 02:11:00,73.0,69.6,29.87,WNW,298,5.0,11.0,89,0.00,,,0.00,meteohub,2013-08-23 06:11:00,
2013-08-23 02:14:00,73.0,69.6,29.87,West,279,3.0,11.0,89,0.00,,,0.00,meteohub,2013-08-23 06:14:00,
2013-08-23 02:16:00,73.0,69.6,29.87,West,278,3.0,11.0,89,0.00,,,0.00,meteohub,2013-08-23 06:16:00,
2013-08-23 02:17:00,72.9,69.8,29.87,WSW,237,9.0,11.0,90,0.00,,,0.00,meteohub,2013-08-23 06:17:00,
2013-08-23 02:18:00,72.9,69.4,29.87,West,262,6.0,11.0,89,0.00,,,0.00,meteohub,2013-08-23 06:18:00,
2013-08-23 02:19:00,72.9,69.8,29.87,West,274,6.0,11.0,90,0.00,,,0.00,meteohub,2013-08-23 06:19:00,
2013-08-23 02:21:00,72.9,69.8,29.87,WSW,242,6.0,11.0,90,0.00,,,0.00,meteohub,2013-08-23 06:21:00,
2013-08-23 02:22:00,72.9,69.8,29.87,WSW,258,3.0,11.0,90,0.00,,,0.00,meteohub,2013-08-23 06:22:00,
2013-08-23 02:23:00,72.9,69.8,29.87,WSW,240,3.0,11.0,90,0.00,,,0.00,meteohub,2013-08-23 06:23:00,
2013-08-23 02:24:00,72.9,69.8,29.87,West,269,4.0,11.0,90,0.00,,,0.00,meteohub,2013-08-23 06:24:00,
2013-08-23 02:25:00,72.9,69.8,29.87,WSW,254,2.0,11.0,90,0.00,,,0.00,meteohub,2013-08-23 06:25:00,
2013-08-23 02:26:00,72.9,69.8,29.87,WNW,286,2.0,10.0,90,0.00,,,0.00,meteohub,2013-08-23 06:26:00,
2013-08-23 02:28:00,72.9,69.8,29.87,WNW,300,9.0,10.0,90,0.00,,,0.00,meteohub,2013-08-23 06:28:00,
2013-08-23 02:29:00,72.9,69.8,29.87,WNW,292,7.0,10.0,90,0.00,,,0.00,meteohub,2013-08-23 06:29:00,
2013-08-23 02:30:00,72.7,69.6,29.87,West,279,8.0,10.0,90,0.00,,,0.00,meteohub,2013-08-23 06:30:00,
2013-08-23 02:31:00,72.7,69.6,29.87,WNW,301,7.0,10.0,90,0.00,,,0.00,meteohub,2013-08-23 06:31:00,
2013-08-23 02:33:00,72.5,69.4,29.87,West,259,4.0,10.0,90,0.00,,,0.00,meteohub,2013-08-23 06:33:00,
2013-08-23 02:34:00,72.3,69.3,29.87,WNW,298,4.0,10.0,90,0.00,,,0.00,meteohub,2013-08-23 06:34:00,
2013-08-23 02:35:00,72.3,69.3,29.87,WSW,258,1.0,11.0,90,0.00,,,0.00,meteohub,2013-08-23 06:35:00,
2013-08-23 02:36:00,72.3,69.3,29.87,WSW,254,7.0,11.0,90,0.00,,,0.00,meteohub,2013-08-23 06:36:00,
2013-08-23 02:38:00,72.3,69.3,29.87,WSW,241,4.0,11.0,90,0.00,,,0.00,meteohub,2013-08-23 06:38:00,
2013-08-23 02:40:00,72.1,69.1,29.87,West,267,4.0,11.0,90,0.00,,,0.00,meteohub,2013-08-23 06:40:00,
2013-08-23 02:41:00,72.1,69.1,29.87,West,276,7.0,11.0,90,0.00,,,0.00,meteohub,2013-08-23 06:41:00,
2013-08-23 02:42:00,72.1,69.1,29.87,West,269,3.0,11.0,90,0.00,,,0.00,meteohub,2013-08-23 06:42:00,
2013-08-23 02:44:00,72.1,69.1,29.87,WNW,294,9.0,11.0,90,0.00,,,0.00,meteohub,2013-08-23 06:44:00,
2013-08-23 02:45:00,72.0,68.9,29.87,WNW,291,4.0,11.0,90,0.00,,,0.00,meteohub,2013-08-23 06:45:00,
2013-08-23 02:46:00,72.0,68.9,29.87,West,263,3.0,10.0,90,0.00,,,0.00,meteohub,2013-08-23 06:46:00,
2013-08-23 02:47:00,72.0,69.3,29.87,WSW,254,4.0,10.0,91,0.00,,,0.00,meteohub,2013-08-23 06:47:00,
2013-08-23 02:49:00,72.0,69.3,29.87,NW,304,4.0,10.0,91,0.00,,,0.00,meteohub,2013-08-23 06:49:00,
2013-08-23 02:50:00,71.8,68.7,29.87,WNW,296,4.0,10.0,90,0.00,,,0.00,meteohub,2013-08-23 06:50:00,
2013-08-23 02:51:00,71.8,68.7,29.87,WNW,288,3.0,10.0,90,0.00,,,0.00,meteohub,2013-08-23 06:51:00,
2013-08-23 02:52:00,71.8,68.7,29.87,West,269,3.0,10.0,90,0.00,,,0.00,meteohub,2013-08-23 06:52:00,
2013-08-23 02:54:00,71.8,69.1,29.87,WSW,240,3.0,10.0,91,0.00,,,0.00,meteohub,2013-08-23 06:54:00,
2013-08-23 02:56:00,71.8,69.1,29.87,West,279,4.0,9.0,91,0.00,,,0.00,meteohub,2013-08-23 06:56:00,
2013-08-23 02:57:00,71.8,69.1,29.87,West,264,2.0,9.0,91,0.00,,,0.00,meteohub,2013-08-23 06:57:00,
2013-08-23 03:00:00,71.8,69.1,29.87,West,262,1.0,9.0,91,0.00,,,0.00,meteohub,2013-08-23 07:00:00,
2013-08-23 03:01:00,71.8,69.1,29.87,WNW,288,3.0,9.0,91,0.00,,,0.00,meteohub,2013-08-23 07:01:00,
2013-08-23 03:02:00,71.8,69.1,29.87,WNW,290,1.0,9.0,91,0.00,,,0.00,meteohub,2013-08-23 07:02:00,
2013-08-23 03:05:00,71.6,68.9,29.87,WSW,258,3.0,9.0,91,0.00,,,0.00,meteohub,2013-08-23 07:05:00,
2013-08-23 03:07:00,71.4,68.7,29.87,WNW,292,3.0,8.0,91,0.00,,,0.00,meteohub,2013-08-23 07:07:00,
2013-08-23 03:10:00,71.4,68.7,29.87,West,273,6.0,8.0,91,0.00,,,0.00,meteohub,2013-08-23 07:10:00,
2013-08-23 03:12:00,71.4,68.7,29.87,West,279,3.0,8.0,91,0.00,,,0.00,meteohub,2013-08-23 07:12:00,
2013-08-23 03:13:00,71.4,68.7,29.87,WNW,282,3.0,8.0,91,0.00,,,0.00,meteohub,2013-08-23 07:13:00,
2013-08-23 03:15:00,71.2,68.5,29.87,West,277,4.0,8.0,91,0.00,,,0.00,meteohub,2013-08-23 07:15:00,
2013-08-23 03:17:00,71.2,68.5,29.87,NW,306,4.0,8.0,91,0.00,,,0.00,meteohub,2013-08-23 07:17:00,
2013-08-23 03:18:00,71.2,68.5,29.86,WNW,282,2.0,8.0,91,0.00,,,0.00,meteohub,2013-08-23 07:18:00,
2013-08-23 03:21:00,71.2,68.5,29.86,WSW,257,5.0,8.0,91,0.00,,,0.00,meteohub,2013-08-23 07:21:00,
2013-08-23 03:22:00,71.2,68.5,29.86,West,281,4.0,8.0,91,0.00,,,0.00,meteohub,2013-08-23 07:22:00,
2013-08-23 03:23:00,71.1,68.4,29.86,WSW,243,3.0,8.0,91,0.00,,,0.00,meteohub,2013-08-23 07:23:00,
2013-08-23 03:24:00,71.1,68.4,29.86,West,267,1.0,8.0,91,0.00,,,0.00,meteohub,2013-08-23 07:24:00,
2013-08-23 03:27:00,71.1,68.4,29.86,WNW,284,6.0,9.0,91,0.00,,,0.00,meteohub,2013-08-23 07:27:00,
2013-08-23 03:28:00,71.1,68.4,29.87,WNW,290,3.0,9.0,91,0.00,,,0.00,meteohub,2013-08-23 07:28:00,
2013-08-23 03:30:00,71.1,68.4,29.87,WNW,298,5.0,9.0,91,0.00,,,0.00,meteohub,2013-08-23 07:30:00,
2013-08-23 03:32:00,71.1,68.4,29.87,WNW,291,8.0,9.0,91,0.00,,,0.00,meteohub,2013-08-23 07:32:00,
2013-08-23 03:33:00,71.1,68.4,29.87,WNW,284,4.0,9.0,91,0.00,,,0.00,meteohub,2013-08-23 07:33:00,
2013-08-23 03:34:00,71.1,68.4,29.87,NW,304,3.0,9.0,91,0.00,,,0.00,meteohub,2013-08-23 07:34:00,
2013-08-23 03:35:00,71.1,68.4,29.87,West,269,3.0,9.0,91,0.00,,,0.00,meteohub,2013-08-23 07:35:00,
2013-08-23 03:37:00,71.1,68.4,29.86,WNW,297,2.0,9.0,91,0.00,,,0.00,meteohub,2013-08-23 07:37:00,
2013-08-23 03:38:00,71.1,68.4,29.86,NW,309,5.0,9.0,91,0.00,,,0.00,meteohub,2013-08-23 07:38:00,
2013-08-23 03:39:00,71.1,68.4,29.86,WNW,286,10.0,10.0,91,0.00,,,0.00,meteohub,2013-08-23 07:39:00,
2013-08-23 03:40:00,71.1,68.4,29.86,NW,309,5.0,9.0,91,0.00,,,0.00,meteohub,2013-08-23 07:40:00,
2013-08-23 03:42:00,71.1,68.4,29.86,NW,319,4.0,9.0,91,0.00,,,0.00,meteohub,2013-08-23 07:42:00,
2013-08-23 03:43:00,71.1,68.4,29.86,WNW,297,1.0,9.0,91,0.00,,,0.00,meteohub,2013-08-23 07:43:00,
2013-08-23 03:44:00,71.1,68.4,29.86,NW,309,5.0,9.0,91,0.00,,,0.00,meteohub,2013-08-23 07:44:00,
2013-08-23 03:45:00,71.1,68.4,29.86,WNW,290,3.0,10.0,91,0.00,,,0.00,meteohub,2013-08-23 07:45:00,
2013-08-23 03:47:00,71.1,68.4,29.86,West,281,2.0,10.0,91,0.00,,,0.00,meteohub,2013-08-23 07:47:00,
2013-08-23 03:48:00,71.1,68.4,29.86,West,269,3.0,10.0,91,0.00,,,0.00,meteohub,2013-08-23 07:48:00,
2013-08-23 03:49:00,71.1,68.4,29.86,WNW,299,2.0,10.0,91,0.00,,,0.00,meteohub,2013-08-23 07:49:00,
2013-08-23 03:50:00,71.1,68.4,29.86,WNW,290,0.0,10.0,91,0.00,,,0.00,meteohub,2013-08-23 07:50:00,
2013-08-23 03:52:00,71.2,68.5,29.86,WNW,297,7.0,10.0,91,0.00,,,0.00,meteohub,2013-08-23 07:52:00,
2013-08-23 03:54:00,71.2,68.5,29.86,West,269,4.0,10.0,91,0.00,,,0.00,meteohub,2013-08-23 07:54:00,
2013-08-23 03:55:00,71.2,68.5,29.86,SW,235,3.0,8.0,91,0.00,,,0.00,meteohub,2013-08-23 07:55:00,
2013-08-23 03:56:00,71.2,68.5,29.86,WNW,286,4.0,8.0,91,0.00,,,0.00,meteohub,2013-08-23 07:56:00,
2013-08-23 03:57:00,71.2,68.5,29.86,WSW,240,2.0,8.0,91,0.00,,,0.00,meteohub,2013-08-23 07:57:00,
2013-08-23 03:59:00,71.2,68.2,29.86,East,94,3.0,8.0,90,0.00,,,0.00,meteohub,2013-08-23 07:59:00,
2013-08-23 04:00:00,71.2,68.2,29.86,West,277,3.0,8.0,90,0.00,,,0.00,meteohub,2013-08-23 08:00:00,
2013-08-23 04:01:00,71.2,68.2,29.86,WNW,295,3.0,10.0,90,0.00,,,0.00,meteohub,2013-08-23 08:01:00,
2013-08-23 04:03:00,71.2,68.2,29.86,NNW,342,3.0,10.0,90,0.00,,,0.00,meteohub,2013-08-23 08:03:00,
2013-08-23 04:05:00,71.4,68.4,29.86,WNW,283,3.0,10.0,90,0.00,,,0.00,meteohub,2013-08-23 08:05:00,
2013-08-23 04:06:00,71.4,68.4,29.86,WNW,284,3.0,10.0,90,0.00,,,0.00,meteohub,2013-08-23 08:06:00,
2013-08-23 04:09:00,71.4,68.4,29.86,NNW,348,4.0,10.0,90,0.00,,,0.00,meteohub,2013-08-23 08:09:00,
2013-08-23 04:10:00,71.4,68.4,29.86,WNW,292,8.0,10.0,90,0.00,,,0.00,meteohub,2013-08-23 08:10:00,
2013-08-23 04:11:00,71.4,68.4,29.86,WNW,285,2.0,11.0,90,0.00,,,0.00,meteohub,2013-08-23 08:11:00,
2013-08-23 04:12:00,71.4,68.4,29.86,WNW,296,2.0,11.0,90,0.00,,,0.00,meteohub,2013-08-23 08:12:00,
2013-08-23 04:14:00,71.4,68.4,29.86,WNW,302,3.0,11.0,90,0.00,,,0.00,meteohub,2013-08-23 08:14:00,
2013-08-23 04:15:00,71.4,68.4,29.86,WNW,292,5.0,11.0,90,0.00,,,0.00,meteohub,2013-08-23 08:15:00,
2013-08-23 04:16:00,71.4,68.4,29.86,West,269,2.0,11.0,90,0.00,,,0.00,meteohub,2013-08-23 08:16:00,
2013-08-23 04:18:00,71.4,68.4,29.86,NW,317,3.0,11.0,90,0.00,,,0.00,meteohub,2013-08-23 08:18:00,
2013-08-23 04:19:00,71.4,68.4,29.86,SE,142,0.0,11.0,90,0.00,,,0.00,meteohub,2013-08-23 08:19:00,
2013-08-23 04:20:00,71.2,68.2,29.86,NW,315,6.0,9.0,90,0.00,,,0.00,meteohub,2013-08-23 08:20:00,
2013-08-23 04:21:00,71.4,68.4,29.86,West,275,1.0,9.0,90,0.00,,,0.00,meteohub,2013-08-23 08:21:00,
2013-08-23 04:22:00,71.4,68.4,29.86,NE,37,1.0,9.0,90,0.00,,,0.00,meteohub,2013-08-23 08:22:00,
2013-08-23 04:23:00,71.2,68.2,29.86,NW,321,4.0,9.0,90,0.00,,,0.00,meteohub,2013-08-23 08:23:00,
2013-08-23 04:25:00,71.2,68.2,29.86,West,273,4.0,9.0,90,0.00,,,0.00,meteohub,2013-08-23 08:25:00,
2013-08-23 04:26:00,71.2,68.2,29.86,WNW,298,5.0,8.0,90,0.00,,,0.00,meteohub,2013-08-23 08:26:00,
2013-08-23 04:27:00,71.2,68.2,29.87,NW,317,1.0,8.0,90,0.00,,,0.00,meteohub,2013-08-23 08:27:00,
2013-08-23 04:28:00,71.2,68.2,29.86,WNW,291,3.0,8.0,90,0.00,,,0.00,meteohub,2013-08-23 08:28:00,
2013-08-23 04:30:00,71.2,68.2,29.86,WNW,292,1.0,8.0,90,0.00,,,0.00,meteohub,2013-08-23 08:30:00,
2013-08-23 04:31:00,71.2,68.2,29.86,WNW,300,2.0,8.0,90,0.00,,,0.00,meteohub,2013-08-23 08:31:00,
2013-08-23 04:32:00,71.2,68.2,29.87,WNW,286,2.0,8.0,90,0.00,,,0.00,meteohub,2013-08-23 08:32:00,
2013-08-23 04:33:00,71.2,68.2,29.86,NW,307,0.0,8.0,90,0.00,,,0.00,meteohub,2013-08-23 08:33:00,
2013-08-23 04:36:00,71.2,68.2,29.86,NNW,333,4.0,8.0,90,0.00,,,0.00,meteohub,2013-08-23 08:36:00,
2013-08-23 04:37:00,71.2,68.2,29.86,WNW,284,4.0,8.0,90,0.00,,,0.00,meteohub,2013-08-23 08:37:00,
2013-08-23 04:38:00,71.2,68.2,29.86,WNW,298,0.0,8.0,90,0.00,,,0.00,meteohub,2013-08-23 08:38:00,
2013-08-23 04:39:00,71.2,68.2,29.86,SW,214,2.0,8.0,90,0.00,,,0.00,meteohub,2013-08-23 08:39:00,
2013-08-23 04:41:00,71.2,68.2,29.86,NE,38,2.0,9.0,90,0.00,,,0.00,meteohub,2013-08-23 08:41:00,
2013-08-23 04:42:00,71.2,68.2,29.86,SSW,207,1.0,9.0,90,0.00,,,0.00,meteohub,2013-08-23 08:42:00,
2013-08-23 04:43:00,71.2,68.2,29.86,NE,43,2.0,9.0,90,0.00,,,0.00,meteohub,2013-08-23 08:43:00,
2013-08-23 04:44:00,71.2,68.2,29.86,NW,309,2.0,9.0,90,0.00,,,0.00,meteohub,2013-08-23 08:44:00,
2013-08-23 04:47:00,71.4,68.4,29.86,WNW,296,0.0,9.0,90,0.00,,,0.00,meteohub,2013-08-23 08:47:00,
2013-08-23 04:48:00,71.2,68.2,29.87,WNW,287,2.0,9.0,90,0.00,,,0.00,meteohub,2013-08-23 08:48:00,
2013-08-23 04:49:00,71.2,68.2,29.86,West,275,2.0,9.0,90,0.00,,,0.00,meteohub,2013-08-23 08:49:00,
2013-08-23 04:50:00,71.4,68.4,29.87,West,269,1.0,9.0,90,0.00,,,0.00,meteohub,2013-08-23 08:50:00,
2013-08-23 04:52:00,71.2,68.2,29.87,West,280,1.0,9.0,90,0.00,,,0.00,meteohub,2013-08-23 08:52:00,
2013-08-23 04:53:00,71.4,68.4,29.87,WNW,296,2.0,9.0,90,0.00,,,0.00,meteohub,2013-08-23 08:53:00,
2013-08-23 04:55:00,71.4,68.0,29.87,WNW,296,2.0,9.0,89,0.00,,,0.00,meteohub,2013-08-23 08:55:00,
2013-08-23 04:57:00,71.4,68.4,29.87,West,277,4.0,8.0,90,0.00,,,0.00,meteohub,2013-08-23 08:57:00,
2013-08-23 04:58:00,71.4,68.0,29.87,WNW,298,1.0,8.0,89,0.00,,,0.00,meteohub,2013-08-23 08:58:00,
2013-08-23 05:00:00,71.4,68.4,29.87,NNW,332,8.0,8.0,90,0.00,,,0.00,meteohub,2013-08-23 09:00:00,
2013-08-23 05:01:00,71.4,68.4,29.87,WNW,288,4.0,8.0,90,0.00,,,0.00,meteohub,2013-08-23 09:01:00,
2013-08-23 05:02:00,71.4,68.0,29.87,West,275,3.0,8.0,89,0.00,,,0.00,meteohub,2013-08-23 09:02:00,
2013-08-23 05:03:00,71.4,68.0,29.87,WNW,285,2.0,8.0,89,0.00,,,0.00,meteohub,2013-08-23 09:03:00,
2013-08-23 05:05:00,71.4,68.0,29.87,West,267,2.0,8.0,89,0.00,,,0.00,meteohub,2013-08-23 09:05:00,
2013-08-23 05:06:00,71.4,68.0,29.87,WNW,283,2.0,9.0,89,0.00,,,0.00,meteohub,2013-08-23 09:06:00,
2013-08-23 05:07:00,71.4,68.0,29.87,West,263,0.0,9.0,89,0.00,,,0.00,meteohub,2013-08-23 09:07:00,
2013-08-23 05:08:00,71.4,68.0,29.87,WNW,298,3.0,9.0,89,0.00,,,0.00,meteohub,2013-08-23 09:08:00,
2013-08-23 05:09:00,71.4,68.0,29.87,WNW,299,1.0,9.0,89,0.00,,,0.00,meteohub,2013-08-23 09:09:00,
2013-08-23 05:11:00,71.4,68.0,29.87,WNW,299,1.0,9.0,89,0.00,,,0.00,meteohub,2013-08-23 09:11:00,
2013-08-23 05:12:00,71.4,68.0,29.87,NE,55,1.0,9.0,89,0.00,,,0.00,meteohub,2013-08-23 09:12:00,
2013-08-23 05:14:00,71.4,68.4,29.87,WNW,293,1.0,9.0,90,0.00,,,0.00,meteohub,2013-08-23 09:14:00,
2013-08-23 05:16:00,71.4,68.4,29.87,WNW,295,1.0,8.0,90,0.00,,,0.00,meteohub,2013-08-23 09:16:00,
2013-08-23 05:18:00,71.4,68.4,29.87,WNW,302,3.0,8.0,90,0.00,,,0.00,meteohub,2013-08-23 09:18:00,
2013-08-23 05:19:00,71.2,68.2,29.87,WNW,303,4.0,8.0,90,0.00,,,0.00,meteohub,2013-08-23 09:19:00,
2013-08-23 05:20:00,71.2,68.2,29.87,WNW,296,7.0,8.0,90,0.00,,,0.00,meteohub,2013-08-23 09:20:00,
2013-08-23 05:21:00,71.2,68.2,29.87,WNW,283,1.0,8.0,90,0.00,,,0.00,meteohub,2013-08-23 09:21:00,
2013-08-23 05:23:00,71.2,68.2,29.87,West,273,0.0,8.0,90,0.00,,,0.00,meteohub,2013-08-23 09:23:00,
2013-08-23 05:25:00,71.2,68.2,29.87,WSW,257,1.0,8.0,90,0.00,,,0.00,meteohub,2013-08-23 09:25:00,
2013-08-23 05:26:00,71.2,68.2,29.87,WNW,286,3.0,8.0,90,0.00,,,0.00,meteohub,2013-08-23 09:26:00,
2013-08-23 05:29:00,71.2,68.2,29.87,WNW,288,5.0,8.0,90,0.00,,,0.00,meteohub,2013-08-23 09:29:00,
2013-08-23 05:31:00,71.2,68.2,29.87,NW,305,2.0,8.0,90,0.00,,,0.00,meteohub,2013-08-23 09:31:00,
2013-08-23 05:32:00,71.2,68.2,29.87,WNW,300,4.0,7.0,90,0.00,,,0.00,meteohub,2013-08-23 09:32:00,
2013-08-23 05:34:00,71.2,68.2,29.87,West,277,4.0,7.0,90,0.00,,,0.00,meteohub,2013-08-23 09:34:00,
2013-08-23 05:36:00,71.2,68.2,29.87,West,263,1.0,7.0,90,0.00,,,0.00,meteohub,2013-08-23 09:36:00,
2013-08-23 05:37:00,71.2,68.2,29.87,West,267,2.0,7.0,90,0.00,,,0.00,meteohub,2013-08-23 09:37:00,
2013-08-23 05:40:00,71.2,68.2,29.87,WNW,292,4.0,7.0,90,0.00,,,0.00,meteohub,2013-08-23 09:40:00,
2013-08-23 05:41:00,71.2,68.2,29.87,WNW,299,3.0,10.0,90,0.00,,,0.00,meteohub,2013-08-23 09:41:00,
2013-08-23 05:42:00,71.2,68.2,29.87,NNE,17,2.0,10.0,90,0.00,,,0.00,meteohub,2013-08-23 09:42:00,
2013-08-23 05:44:00,71.2,68.2,29.88,WNW,288,4.0,10.0,90,0.00,,,0.00,meteohub,2013-08-23 09:44:00,
2013-08-23 05:45:00,71.2,68.2,29.87,SW,234,1.0,10.0,90,0.00,,,0.00,meteohub,2013-08-23 09:45:00,
2013-08-23 05:46:00,71.2,68.2,29.87,West,270,2.0,10.0,90,0.00,,,0.00,meteohub,2013-08-23 09:46:00,
2013-08-23 05:48:00,71.2,68.2,29.87,NW,306,2.0,10.0,90,0.00,,,0.00,meteohub,2013-08-23 09:48:00,
2013-08-23 05:49:00,71.2,68.2,29.88,WNW,285,6.0,10.0,90,0.00,,,0.00,meteohub,2013-08-23 09:49:00,
2013-08-23 05:50:00,71.2,68.2,29.88,SW,215,0.0,10.0,90,0.00,,,0.00,meteohub,2013-08-23 09:50:00,
2013-08-23 05:51:00,71.2,68.2,29.88,West,266,7.0,9.0,90,0.00,,,0.00,meteohub,2013-08-23 09:51:00,
2013-08-23 05:53:00,71.2,68.2,29.88,West,273,1.0,9.0,90,0.00,,,0.00,meteohub,2013-08-23 09:53:00,
2013-08-23 05:54:00,71.2,68.2,29.88,SE,132,0.0,9.0,90,0.00,,,0.00,meteohub,2013-08-23 09:54:00,
2013-08-23 05:55:00,71.2,68.2,29.88,WNW,293,2.0,9.0,90,0.00,,,0.00,meteohub,2013-08-23 09:55:00,
2013-08-23 05:57:00,71.2,68.2,29.88,WNW,294,2.0,8.0,90,0.00,,,0.00,meteohub,2013-08-23 09:57:00,
2013-08-23 05:58:00,71.2,68.2,29.88,NE,55,1.0,8.0,90,0.00,,,0.00,meteohub,2013-08-23 09:58:00,
2013-08-23 06:00:00,71.2,68.2,29.88,West,268,1.0,8.0,90,0.00,,,0.00,meteohub,2013-08-23 10:00:00,
2013-08-23 06:02:00,71.2,68.2,29.88,East,101,0.0,8.0,90,0.00,,,0.00,meteohub,2013-08-23 10:02:00,
2013-08-23 06:03:00,71.2,68.2,29.88,WNW,290,3.0,8.0,90,0.00,,,0.00,meteohub,2013-08-23 10:03:00,
2013-08-23 06:04:00,71.2,68.2,29.88,NW,321,3.0,8.0,90,0.00,,,0.00,meteohub,2013-08-23 10:04:00,
2013-08-23 06:05:00,71.2,68.2,29.88,WNW,297,0.0,7.0,90,0.00,,,0.00,meteohub,2013-08-23 10:05:00,
2013-08-23 06:06:00,71.2,68.2,29.88,NW,304,0.0,7.0,90,0.00,,,0.00,meteohub,2013-08-23 10:06:00,
2013-08-23 06:07:00,71.2,68.2,29.88,NE,44,0.0,7.0,90,0.00,,,0.00,meteohub,2013-08-23 10:07:00,
2013-08-23 06:08:00,71.2,68.2,29.88,NE,53,1.0,7.0,90,0.00,,,0.00,meteohub,2013-08-23 10:08:00,
2013-08-23 06:09:00,71.2,68.2,29.88,North,5,3.0,7.0,90,0.00,,,0.00,meteohub,2013-08-23 10:09:00,
2013-08-23 06:11:00,71.2,68.2,29.88,NNE,32,1.0,7.0,90,0.00,,,0.00,meteohub,2013-08-23 10:11:00,
2013-08-23 06:12:00,71.2,68.2,29.88,SSE,165,1.0,7.0,90,0.00,,,0.00,meteohub,2013-08-23 10:12:00,
2013-08-23 06:14:00,71.2,68.2,29.88,NW,321,3.0,7.0,90,0.00,,,0.00,meteohub,2013-08-23 10:14:00,
2013-08-23 06:15:00,71.2,67.8,29.88,NW,306,7.0,7.0,89,0.00,,,0.00,meteohub,2013-08-23 10:15:00,
2013-08-23 06:16:00,71.2,67.8,29.88,SW,236,2.0,7.0,89,0.00,,,0.00,meteohub,2013-08-23 10:16:00,
2013-08-23 06:17:00,71.2,67.8,29.88,West,279,3.0,7.0,89,0.00,,,0.00,meteohub,2013-08-23 10:17:00,
2013-08-23 06:19:00,71.2,67.8,29.88,NNW,348,2.0,7.0,89,0.00,,,0.00,meteohub,2013-08-23 10:19:00,
2013-08-23 06:20:00,71.2,67.8,29.89,NNW,347,1.0,7.0,89,0.00,,,0.00,meteohub,2013-08-23 10:20:00,
2013-08-23 06:22:00,71.2,67.8,29.89,NNE,21,2.0,7.0,89,0.00,,,0.00,meteohub,2013-08-23 10:22:00,
2013-08-23 06:23:00,71.2,67.8,29.89,East,94,1.0,7.0,89,0.00,,,0.00,meteohub,2013-08-23 10:23:00,
2013-08-23 06:25:00,71.2,67.8,29.89,West,267,0.0,7.0,89,0.00,,,0.00,meteohub,2013-08-23 10:25:00,
2013-08-23 06:27:00,71.2,67.8,29.89,NNE,23,0.0,7.0,89,0.00,,,0.00,meteohub,2013-08-23 10:27:00,
2013-08-23 06:28:00,71.2,67.8,29.89,NW,326,4.0,7.0,89,0.00,,,0.00,meteohub,2013-08-23 10:28:00,
2013-08-23 06:30:00,71.2,67.8,29.89,NE,49,0.0,7.0,89,0.00,,,0.00,meteohub,2013-08-23 10:30:00,
2013-08-23 06:31:00,71.2,67.8,29.89,West,272,4.0,7.0,89,0.00,,,0.00,meteohub,2013-08-23 10:31:00,
2013-08-23 06:32:00,71.2,67.8,29.89,NNW,335,1.0,7.0,89,0.00,,,0.00,meteohub,2013-08-23 10:32:00,
2013-08-23 06:33:00,71.2,67.8,29.89,NW,319,0.0,7.0,89,0.00,,,0.00,meteohub,2013-08-23 10:33:00,
2013-08-23 06:35:00,71.2,67.8,29.89,East,80,1.0,5.0,89,0.00,,,0.00,meteohub,2013-08-23 10:35:00,
2013-08-23 06:36:00,71.2,67.8,29.90,NW,306,4.0,5.0,89,0.00,,,0.00,meteohub,2013-08-23 10:36:00,
2013-08-23 06:37:00,71.2,67.8,29.90,NNE,13,2.0,5.0,89,0.00,,,0.00,meteohub,2013-08-23 10:37:00,
2013-08-23 06:38:00,71.2,67.8,29.90,WSW,248,2.0,5.0,89,0.00,,,0.00,meteohub,2013-08-23 10:38:00,
2013-08-23 06:40:00,71.2,67.8,29.90,NNW,333,2.0,5.0,89,0.00,,,0.00,meteohub,2013-08-23 10:40:00,
2013-08-23 06:41:00,71.2,67.8,29.90,WSW,237,1.0,5.0,89,0.00,,,0.00,meteohub,2013-08-23 10:41:00,
2013-08-23 06:43:00,71.2,67.8,29.90,NW,315,0.0,5.0,89,0.00,,,0.00,meteohub,2013-08-23 10:43:00,
2013-08-23 06:44:00,71.2,67.8,29.90,WNW,286,1.0,5.0,89,0.00,,,0.00,meteohub,2013-08-23 10:44:00,
2013-08-23 06:45:00,71.2,67.8,29.90,North,355,3.0,6.0,89,0.00,,,0.00,meteohub,2013-08-23 10:45:00,
2013-08-23 06:46:00,71.2,67.8,29.90,NW,317,0.0,6.0,89,0.00,,,0.00,meteohub,2013-08-23 10:46:00,
2013-08-23 06:48:00,71.4,68.0,29.90,NNW,345,3.0,6.0,89,0.00,,,0.00,meteohub,2013-08-23 10:48:00,
2013-08-23 06:49:00,71.4,67.6,29.90,West,264,1.0,6.0,88,0.00,,,0.00,meteohub,2013-08-23 10:49:00,
2013-08-23 06:50:00,71.4,67.6,29.90,WSW,237,1.0,6.0,88,0.00,,,0.00,meteohub,2013-08-23 10:50:00,
2013-08-23 06:52:00,71.4,67.6,29.90,NW,304,4.0,6.0,88,0.00,,,0.00,meteohub,2013-08-23 10:52:00,
2013-08-23 06:53:00,71.4,67.6,29.90,SW,227,2.0,6.0,88,0.00,,,0.00,meteohub,2013-08-23 10:53:00,
2013-08-23 06:54:00,71.4,67.6,29.90,NNE,31,1.0,6.0,88,0.00,,,0.00,meteohub,2013-08-23 10:54:00,
2013-08-23 06:55:00,71.4,67.6,29.90,NNE,30,2.0,6.0,88,0.00,,,0.00,meteohub,2013-08-23 10:55:00,
2013-08-23 06:57:00,71.4,67.6,29.91,NNE,27,2.0,6.0,88,0.00,,,0.00,meteohub,2013-08-23 10:57:00,
2013-08-23 06:58:00,71.4,67.6,29.91,SW,234,2.0,6.0,88,0.00,,,0.00,meteohub,2013-08-23 10:58:00,
2013-08-23 06:59:00,71.6,67.8,29.91,NNE,24,1.0,6.0,88,0.00,,,0.00,meteohub,2013-08-23 10:59:00,
2013-08-23 07:00:00,71.6,67.8,29.91,NW,318,0.0,6.0,88,0.00,,,0.00,meteohub,2013-08-23 11:00:00,
2013-08-23 07:02:00,71.8,68.0,29.91,NNE,20,2.0,6.0,88,0.00,,,0.00,meteohub,2013-08-23 11:02:00,
2013-08-23 07:04:00,71.8,68.0,29.91,NW,312,1.0,6.0,88,0.00,,,0.00,meteohub,2013-08-23 11:04:00,
2013-08-23 07:06:00,71.8,68.0,29.91,NNW,348,2.0,6.0,88,0.00,,,0.00,meteohub,2013-08-23 11:06:00,
2013-08-23 07:08:00,72.0,68.2,29.91,NNE,14,2.0,6.0,88,0.00,,,0.00,meteohub,2013-08-23 11:08:00,
2013-08-23 07:09:00,72.0,68.2,29.91,NNE,28,2.0,6.0,88,0.00,,,0.00,meteohub,2013-08-23 11:09:00,
2013-08-23 07:10:00,72.0,68.2,29.91,East,88,3.0,6.0,88,0.00,,,0.00,meteohub,2013-08-23 11:10:00,
2013-08-23 07:12:00,72.1,68.0,29.91,NW,325,4.0,6.0,87,0.00,,,0.00,meteohub,2013-08-23 11:12:00,
2013-08-23 07:13:00,72.1,68.0,29.91,East,84,0.0,6.0,87,0.00,,,0.00,meteohub,2013-08-23 11:13:00,
2013-08-23 07:15:00,72.1,68.0,29.91,NE,34,3.0,6.0,87,0.00,,,0.00,meteohub,2013-08-23 11:15:00,
2013-08-23 07:17:00,72.1,68.0,29.91,WNW,286,1.0,10.0,87,0.00,,,0.00,meteohub,2013-08-23 11:17:00,
2013-08-23 07:18:00,72.1,68.0,29.91,NNW,334,1.0,10.0,87,0.00,,,0.00,meteohub,2013-08-23 11:18:00,
2013-08-23 07:19:00,72.1,68.0,29.91,NNW,333,0.0,10.0,87,0.00,,,0.00,meteohub,2013-08-23 11:19:00,
2013-08-23 07:20:00,72.1,68.0,29.91,NNE,31,4.0,10.0,87,0.00,,,0.00,meteohub,2013-08-23 11:20:00,
2013-08-23 07:22:00,72.1,68.0,29.91,NNW,335,1.0,10.0,87,0.00,,,0.00,meteohub,2013-08-23 11:22:00,
2013-08-23 07:23:00,72.1,68.0,29.91,NNE,30,4.0,10.0,87,0.00,,,0.00,meteohub,2013-08-23 11:23:00,
2013-08-23 07:25:00,72.1,68.0,29.92,NW,313,0.0,10.0,87,0.00,,,0.00,meteohub,2013-08-23 11:25:00,
2013-08-23 07:26:00,72.1,68.0,29.92,North,355,1.0,10.0,87,0.00,,,0.00,meteohub,2013-08-23 11:26:00,
2013-08-23 07:28:00,72.1,67.6,29.92,NNE,22,4.0,10.0,86,0.00,,,0.00,meteohub,2013-08-23 11:28:00,
2013-08-23 07:30:00,72.1,68.0,29.92,NNE,13,3.0,9.0,87,0.00,,,0.00,meteohub,2013-08-23 11:30:00,
2013-08-23 07:31:00,72.1,67.6,29.92,NNE,26,3.0,9.0,86,0.00,,,0.00,meteohub,2013-08-23 11:31:00,
2013-08-23 07:33:00,72.3,67.8,29.92,NNW,342,1.0,9.0,86,0.00,,,0.00,meteohub,2013-08-23 11:33:00,
2013-08-23 07:34:00,72.3,67.8,29.92,NE,39,2.0,9.0,86,0.00,,,0.00,meteohub,2013-08-23 11:34:00,
2013-08-23 07:35:00,72.3,67.8,29.92,South,184,2.0,9.0,86,0.00,,,0.00,meteohub,2013-08-23 11:35:00,
2013-08-23 07:36:00,72.3,67.8,29.92,WNW,295,4.0,9.0,86,0.00,,,0.00,meteohub,2013-08-23 11:36:00,
2013-08-23 07:38:00,72.3,67.8,29.92,NW,324,2.0,9.0,86,0.00,,,0.00,meteohub,2013-08-23 11:38:00,
2013-08-23 07:39:00,72.3,67.8,29.92,NW,319,2.0,9.0,86,0.00,,,0.00,meteohub,2013-08-23 11:39:00,
2013-08-23 07:40:00,72.3,67.8,29.92,NNE,22,2.0,9.0,86,0.00,,,0.00,meteohub,2013-08-23 11:40:00,
2013-08-23 07:42:00,72.3,67.8,29.92,North,0,5.0,9.0,86,0.00,,,0.00,meteohub,2013-08-23 11:42:00,
2013-08-23 07:44:00,72.3,67.8,29.93,NNE,30,2.0,9.0,86,0.00,,,0.00,meteohub,2013-08-23 11:44:00,
2013-08-23 07:46:00,72.3,67.8,29.92,NNW,328,3.0,9.0,86,0.00,,,0.00,meteohub,2013-08-23 11:46:00,
2013-08-23 07:47:00,72.3,67.8,29.92,WNW,291,3.0,9.0,86,0.00,,,0.00,meteohub,2013-08-23 11:47:00,
2013-08-23 07:48:00,72.3,67.8,29.93,NE,36,3.0,9.0,86,0.00,,,0.00,meteohub,2013-08-23 11:48:00,
2013-08-23 07:49:00,72.3,67.8,29.93,NNW,341,3.0,9.0,86,0.00,,,0.00,meteohub,2013-08-23 11:49:00,
2013-08-23 07:51:00,72.5,68.0,29.93,West,281,7.0,12.0,86,0.00,,,0.00,meteohub,2013-08-23 11:51:00,
2013-08-23 07:52:00,72.7,68.2,29.93,North,5,3.0,12.0,86,0.00,,,0.00,meteohub,2013-08-23 11:52:00,
2013-08-23 07:54:00,72.7,68.2,29.93,NNE,24,5.0,12.0,86,0.00,,,0.00,meteohub,2013-08-23 11:54:00,
2013-08-23 07:55:00,72.9,68.4,29.93,NNE,32,5.0,12.0,86,0.00,,,0.00,meteohub,2013-08-23 11:55:00,
2013-08-23 07:57:00,72.9,68.0,29.93,NE,36,10.0,12.0,85,0.00,,,0.00,meteohub,2013-08-23 11:57:00,
2013-08-23 07:59:00,73.0,68.2,29.93,NNE,22,8.0,12.0,85,0.00,,,0.00,meteohub,2013-08-23 11:59:00,
2013-08-23 08:00:00,73.0,68.2,29.93,NNE,13,4.0,12.0,85,0.00,,,0.00,meteohub,2013-08-23 12:00:00,
2013-08-23 08:02:00,73.2,68.4,29.93,NNE,20,4.0,12.0,85,0.00,,,0.00,meteohub,2013-08-23 12:02:00,
2013-08-23 08:03:00,73.4,68.5,29.93,WSW,244,1.0,12.0,85,0.00,,,0.00,meteohub,2013-08-23 12:03:00,
2013-08-23 08:05:00,73.6,68.4,29.93,North,5,3.0,12.0,84,0.00,,,0.00,meteohub,2013-08-23 12:05:00,
2013-08-23 08:07:00,73.8,68.5,29.93,NNW,348,2.0,12.0,84,0.00,,,0.00,meteohub,2013-08-23 12:07:00,
2013-08-23 08:08:00,73.8,68.4,29.93,ESE,121,2.0,12.0,83,0.00,,,0.00,meteohub,2013-08-23 12:08:00,
2013-08-23 08:10:00,73.9,68.4,29.93,NNE,32,6.0,12.0,83,0.00,,,0.00,meteohub,2013-08-23 12:10:00,
2013-08-23 08:11:00,73.9,68.4,29.93,NE,50,5.0,12.0,83,0.00,,,0.00,meteohub,2013-08-23 12:11:00,
2013-08-23 08:12:00,74.1,68.5,29.93,North,355,1.0,12.0,83,0.00,,,0.00,meteohub,2013-08-23 12:12:00,
2013-08-23 08:13:00,74.1,68.5,29.93,NNE,28,3.0,12.0,83,0.00,,,0.00,meteohub,2013-08-23 12:13:00,
2013-08-23 08:15:00,74.3,68.4,29.93,NNE,20,7.0,11.0,82,0.00,,,0.00,meteohub,2013-08-23 12:15:00,
2013-08-23 08:16:00,74.3,68.4,29.93,West,266,1.0,11.0,82,0.00,,,0.00,meteohub,2013-08-23 12:16:00,
2013-08-23 08:17:00,74.3,68.4,29.93,NNE,15,5.0,11.0,82,0.00,,,0.00,meteohub,2013-08-23 12:17:00,
2013-08-23 08:19:00,74.3,68.4,29.93,NNE,27,5.0,11.0,82,0.00,,,0.00,meteohub,2013-08-23 12:19:00,
2013-08-23 08:20:00,74.1,68.2,29.93,NE,54,3.0,11.0,82,0.00,,,0.00,meteohub,2013-08-23 12:20:00,
2013-08-23 08:21:00,74.3,68.4,29.93,NNE,30,3.0,11.0,82,0.00,,,0.00,meteohub,2013-08-23 12:21:00,
2013-08-23 08:22:00,74.3,68.4,29.93,NE,38,4.0,11.0,82,0.00,,,0.00,meteohub,2013-08-23 12:22:00,
2013-08-23 08:24:00,74.5,68.5,29.93,North,0,4.0,11.0,82,0.00,,,0.00,meteohub,2013-08-23 12:24:00,
2013-08-23 08:25:00,74.7,68.7,29.93,NNE,26,6.0,10.0,82,0.00,,,0.00,meteohub,2013-08-23 12:25:00,
2013-08-23 08:26:00,74.7,68.7,29.93,ENE,61,2.0,10.0,82,0.00,,,0.00,meteohub,2013-08-23 12:26:00,
2013-08-23 08:28:00,74.7,68.7,29.93,North,350,5.0,10.0,82,0.00,,,0.00,meteohub,2013-08-23 12:28:00,
2013-08-23 08:29:00,74.8,68.9,29.93,NNE,23,8.0,10.0,82,0.00,,,0.00,meteohub,2013-08-23 12:29:00,
2013-08-23 08:31:00,74.8,68.5,29.93,North,10,3.0,12.0,81,0.00,,,0.00,meteohub,2013-08-23 12:31:00,
2013-08-23 08:32:00,74.8,68.5,29.93,NNE,25,4.0,12.0,81,0.00,,,0.00,meteohub,2013-08-23 12:32:00,
2013-08-23 08:33:00,74.7,68.4,29.93,North,5,3.0,12.0,81,0.00,,,0.00,meteohub,2013-08-23 12:33:00,
2013-08-23 08:34:00,74.7,68.4,29.93,NE,55,3.0,12.0,81,0.00,,,0.00,meteohub,2013-08-23 12:34:00,
2013-08-23 08:36:00,74.7,68.4,29.94,NNE,15,7.0,12.0,81,0.00,,,0.00,meteohub,2013-08-23 12:36:00,
2013-08-23 08:37:00,74.7,68.4,29.94,NE,49,4.0,12.0,81,0.00,,,0.00,meteohub,2013-08-23 12:37:00,
2013-08-23 08:38:00,74.7,68.4,29.93,NE,38,3.0,12.0,81,0.00,,,0.00,meteohub,2013-08-23 12:38:00,
2013-08-23 08:39:00,74.7,68.4,29.93,NE,42,0.0,12.0,81,0.00,,,0.00,meteohub,2013-08-23 12:39:00,
2013-08-23 08:41:00,74.7,68.7,29.93,NNE,13,4.0,12.0,82,0.00,,,0.00,meteohub,2013-08-23 12:41:00,
2013-08-23 08:42:00,74.7,68.7,29.94,North,9,4.0,12.0,82,0.00,,,0.00,meteohub,2013-08-23 12:42:00,
2013-08-23 08:43:00,74.7,68.7,29.94,NE,44,3.0,12.0,82,0.00,,,0.00,meteohub,2013-08-23 12:43:00,
2013-08-23 08:44:00,74.7,68.7,29.94,South,180,2.0,12.0,82,0.00,,,0.00,meteohub,2013-08-23 12:44:00,
2013-08-23 08:45:00,74.7,68.7,29.94,WNW,300,3.0,12.0,82,0.00,,,0.00,meteohub,2013-08-23 12:45:00,
2013-08-23 08:47:00,74.7,68.7,29.94,NNE,18,5.0,12.0,82,0.00,,,0.00,meteohub,2013-08-23 12:47:00,
2013-08-23 08:49:00,74.8,68.5,29.93,West,275,2.0,12.0,81,0.00,,,0.00,meteohub,2013-08-23 12:49:00,
2013-08-23 08:50:00,74.8,68.5,29.93,NNE,26,5.0,12.0,81,0.00,,,0.00,meteohub,2013-08-23 12:50:00,
2013-08-23 08:52:00,74.8,68.5,29.93,NNE,15,3.0,10.0,81,0.00,,,0.00,meteohub,2013-08-23 12:52:00,
2013-08-23 08:54:00,75.0,68.7,29.94,NNE,12,7.0,10.0,81,0.00,,,0.00,meteohub,2013-08-23 12:54:00,
2013-08-23 08:55:00,75.2,68.9,29.94,NNE,25,10.0,16.0,81,0.00,,,0.00,meteohub,2013-08-23 12:55:00,
2013-08-23 08:57:00,75.2,68.5,29.94,NNE,20,4.0,16.0,80,0.00,,,0.00,meteohub,2013-08-23 12:57:00,
2013-08-23 08:59:00,75.4,68.7,29.94,NNE,15,9.0,16.0,80,0.00,,,0.00,meteohub,2013-08-23 12:59:00,
2013-08-23 09:00:00,75.2,68.5,29.94,NE,38,6.0,16.0,80,0.00,,,0.00,meteohub,2013-08-23 13:00:00,
2013-08-23 09:02:00,75.4,68.7,29.94,NNW,332,2.0,16.0,80,0.00,,,0.00,meteohub,2013-08-23 13:02:00,
2013-08-23 09:03:00,75.4,68.7,29.94,NNE,17,7.0,16.0,80,0.00,,,0.00,meteohub,2013-08-23 13:03:00,
2013-08-23 09:05:00,75.4,68.4,29.94,NNE,32,6.0,16.0,79,0.00,,,0.00,meteohub,2013-08-23 13:05:00,
2013-08-23 09:06:00,75.4,68.4,29.94,NNW,348,3.0,13.0,79,0.00,,,0.00,meteohub,2013-08-23 13:06:00,
2013-08-23 09:07:00,75.4,68.4,29.94,NNE,24,8.0,13.0,79,0.00,,,0.00,meteohub,2013-08-23 13:07:00,
2013-08-23 09:08:00,75.4,68.4,29.94,NNE,28,14.0,14.0,79,0.00,,,0.00,meteohub,2013-08-23 13:08:00,
2013-08-23 09:10:00,75.4,68.0,29.94,NE,55,4.0,13.0,78,0.00,,,0.00,meteohub,2013-08-23 13:10:00,
2013-08-23 09:11:00,75.6,68.2,29.94,NNE,32,3.0,14.0,78,0.00,,,0.00,meteohub,2013-08-23 13:11:00,
2013-08-23 09:12:00,75.6,68.2,29.94,NNE,26,4.0,14.0,78,0.00,,,0.00,meteohub,2013-08-23 13:12:00,
2013-08-23 09:13:00,75.7,68.4,29.94,NNE,22,9.0,14.0,78,0.00,,,0.00,meteohub,2013-08-23 13:13:00,
2013-08-23 09:15:00,75.7,68.0,29.94,NE,34,6.0,14.0,77,0.00,,,0.00,meteohub,2013-08-23 13:15:00,
2013-08-23 09:17:00,75.7,67.6,29.94,NNE,30,8.0,14.0,76,0.00,,,0.00,meteohub,2013-08-23 13:17:00,
2013-08-23 09:18:00,75.7,67.6,29.94,NE,36,6.0,14.0,76,0.00,,,0.00,meteohub,2013-08-23 13:18:00,
2013-08-23 09:19:00,75.9,67.8,29.94,North,0,10.0,14.0,76,0.00,,,0.00,meteohub,2013-08-23 13:19:00,
2013-08-23 09:21:00,75.9,67.5,29.94,ENE,58,5.0,14.0,75,0.00,,,0.00,meteohub,2013-08-23 13:21:00,
2013-08-23 09:23:00,76.3,67.8,29.94,North,349,6.0,14.0,75,0.00,,,0.00,meteohub,2013-08-23 13:23:00,
2013-08-23 09:24:00,76.3,67.8,29.94,NNE,32,9.0,14.0,75,0.00,,,0.00,meteohub,2013-08-23 13:24:00,
2013-08-23 09:26:00,76.5,67.6,29.94,NNE,23,12.0,13.0,74,0.00,,,0.00,meteohub,2013-08-23 13:26:00,
2013-08-23 09:28:00,76.6,67.3,29.94,NNE,26,6.0,13.0,73,0.00,,,0.00,meteohub,2013-08-23 13:28:00,
2013-08-23 09:29:00,76.6,67.3,29.94,NNE,15,9.0,13.0,73,0.00,,,0.00,meteohub,2013-08-23 13:29:00,
2013-08-23 09:31:00,76.6,66.9,29.94,NNE,17,10.0,14.0,72,0.00,,,0.00,meteohub,2013-08-23 13:31:00,
2013-08-23 09:33:00,76.6,66.9,29.94,NNE,20,8.0,14.0,72,0.00,,,0.00,meteohub,2013-08-23 13:33:00,
2013-08-23 09:34:00,76.6,66.6,29.94,NNE,17,11.0,14.0,71,0.00,,,0.00,meteohub,2013-08-23 13:34:00,
2013-08-23 09:35:00,76.5,66.4,29.94,NNE,32,10.0,14.0,71,0.00,,,0.00,meteohub,2013-08-23 13:35:00,
2013-08-23 09:37:00,76.5,66.4,29.94,NE,35,7.0,14.0,71,0.00,,,0.00,meteohub,2013-08-23 13:37:00,
2013-08-23 09:38:00,76.5,66.4,29.94,North,5,9.0,14.0,71,0.00,,,0.00,meteohub,2013-08-23 13:38:00,
2013-08-23 09:39:00,76.5,66.4,29.94,NNE,13,9.0,14.0,71,0.00,,,0.00,meteohub,2013-08-23 13:39:00,
2013-08-23 09:41:00,76.5,66.7,29.94,NNE,26,8.0,16.0,72,0.00,,,0.00,meteohub,2013-08-23 13:41:00,
2013-08-23 09:42:00,76.5,66.7,29.94,NNE,22,10.0,16.0,72,0.00,,,0.00,meteohub,2013-08-23 13:42:00,
2013-08-23 09:43:00,76.5,66.4,29.94,NE,43,7.0,16.0,71,0.00,,,0.00,meteohub,2013-08-23 13:43:00,
2013-08-23 09:44:00,76.5,66.4,29.94,North,5,12.0,16.0,71,0.00,,,0.00,meteohub,2013-08-23 13:44:00,
2013-08-23 09:46:00,76.5,66.4,29.94,North,5,8.0,16.0,71,0.00,,,0.00,meteohub,2013-08-23 13:46:00,
2013-08-23 09:47:00,76.5,66.4,29.94,ENE,57,9.0,16.0,71,0.00,,,0.00,meteohub,2013-08-23 13:47:00,
2013-08-23 09:48:00,76.5,66.4,29.94,NE,37,6.0,16.0,71,0.00,,,0.00,meteohub,2013-08-23 13:48:00,
2013-08-23 09:49:00,76.5,66.4,29.94,NNE,26,3.0,16.0,71,0.00,,,0.00,meteohub,2013-08-23 13:49:00,
2013-08-23 09:50:00,76.5,66.4,29.94,NNE,24,10.0,16.0,71,0.00,,,0.00,meteohub,2013-08-23 13:50:00,
2013-08-23 09:51:00,76.5,66.4,29.94,North,0,10.0,16.0,71,0.00,,,0.00,meteohub,2013-08-23 13:51:00,
2013-08-23 09:52:00,76.5,66.4,29.94,NE,35,6.0,16.0,71,0.00,,,0.00,meteohub,2013-08-23 13:52:00,
2013-08-23 09:53:00,76.5,66.4,29.94,NNE,29,8.0,16.0,71,0.00,,,0.00,meteohub,2013-08-23 13:53:00,
2013-08-23 09:54:00,76.5,66.4,29.94,North,11,8.0,16.0,71,0.00,,,0.00,meteohub,2013-08-23 13:54:00,
2013-08-23 09:56:00,76.5,66.4,29.94,NE,39,10.0,16.0,71,0.00,,,0.00,meteohub,2013-08-23 13:56:00,
2013-08-23 09:57:00,76.6,66.6,29.94,NNE,19,7.0,16.0,71,0.00,,,0.00,meteohub,2013-08-23 13:57:00,
2013-08-23 09:58:00,76.5,66.4,29.94,NNE,13,9.0,16.0,71,0.00,,,0.00,meteohub,2013-08-23 13:58:00,
2013-08-23 09:59:00,76.5,66.7,29.94,NNE,30,11.0,16.0,72,0.00,,,0.00,meteohub,2013-08-23 13:59:00,
2013-08-23 10:01:00,76.5,66.4,29.94,NNE,27,8.0,16.0,71,0.00,,,0.00,meteohub,2013-08-23 14:01:00,
2013-08-23 10:02:00,76.5,66.4,29.95,NNE,29,6.0,16.0,71,0.00,,,0.00,meteohub,2013-08-23 14:02:00,
2013-08-23 10:04:00,76.5,66.7,29.95,North,5,5.0,16.0,72,0.00,,,0.00,meteohub,2013-08-23 14:04:00,
2013-08-23 10:06:00,76.6,66.9,29.95,WNW,299,5.0,16.0,72,0.00,,,0.00,meteohub,2013-08-23 14:06:00,
2013-08-23 10:07:00,76.8,67.1,29.95,NE,40,9.0,16.0,72,0.00,,,0.00,meteohub,2013-08-23 14:07:00,
2013-08-23 10:08:00,76.8,67.1,29.95,NNE,17,5.0,16.0,72,0.00,,,0.00,meteohub,2013-08-23 14:08:00,
2013-08-23 10:09:00,76.8,67.1,29.95,NNE,25,9.0,16.0,72,0.00,,,0.00,meteohub,2013-08-23 14:09:00,
2013-08-23 10:10:00,76.8,67.1,29.95,NNE,24,4.0,16.0,72,0.00,,,0.00,meteohub,2013-08-23 14:10:00,
2013-08-23 10:12:00,76.8,67.1,29.95,North,5,9.0,17.0,72,0.00,,,0.00,meteohub,2013-08-23 14:12:00,
2013-08-23 10:13:00,76.8,66.7,29.95,NNE,24,11.0,17.0,71,0.00,,,0.00,meteohub,2013-08-23 14:13:00,
2013-08-23 10:14:00,76.8,66.7,29.95,NNE,13,5.0,17.0,71,0.00,,,0.00,meteohub,2013-08-23 14:14:00,
2013-08-23 10:15:00,77.0,67.3,29.95,NE,34,5.0,17.0,72,0.00,,,0.00,meteohub,2013-08-23 14:15:00,
2013-08-23 10:17:00,77.2,67.5,29.95,NNE,25,10.0,17.0,72,0.00,,,0.00,meteohub,2013-08-23 14:17:00,
2013-08-23 10:19:00,77.2,67.1,29.95,North,9,8.0,17.0,71,0.00,,,0.00,meteohub,2013-08-23 14:19:00,
2013-08-23 10:20:00,77.2,67.5,29.95,NNE,24,3.0,17.0,72,0.00,,,0.00,meteohub,2013-08-23 14:20:00,
2013-08-23 10:23:00,77.4,67.3,29.95,NE,34,12.0,14.0,71,0.00,,,0.00,meteohub,2013-08-23 14:23:00,
2013-08-23 10:24:00,77.4,67.3,29.95,NE,47,10.0,14.0,71,0.00,,,0.00,meteohub,2013-08-23 14:24:00,
2013-08-23 10:26:00,77.2,67.1,29.95,NNE,20,9.0,16.0,71,0.00,,,0.00,meteohub,2013-08-23 14:26:00,
2013-08-23 10:28:00,77.0,67.3,29.95,NNW,348,9.0,16.0,72,0.00,,,0.00,meteohub,2013-08-23 14:28:00,
2013-08-23 10:30:00,76.8,67.1,29.95,NNW,341,6.0,16.0,72,0.00,,,0.00,meteohub,2013-08-23 14:30:00,
2013-08-23 10:31:00,76.8,67.1,29.96,NNE,13,7.0,16.0,72,0.00,,,0.00,meteohub,2013-08-23 14:31:00,
2013-08-23 10:32:00,76.8,67.5,29.96,NNE,24,3.0,16.0,73,0.00,,,0.00,meteohub,2013-08-23 14:32:00,
2013-08-23 10:33:00,76.8,67.5,29.96,NNE,26,10.0,16.0,73,0.00,,,0.00,meteohub,2013-08-23 14:33:00,
2013-08-23 10:35:00,76.6,67.3,29.96,NNE,32,5.0,16.0,73,0.00,,,0.00,meteohub,2013-08-23 14:35:00,
2013-08-23 10:37:00,76.6,67.3,29.96,NNE,33,8.0,16.0,73,0.00,,,0.00,meteohub,2013-08-23 14:37:00,
2013-08-23 10:38:00,76.8,67.8,29.96,NE,37,2.0,16.0,74,0.00,,,0.00,meteohub,2013-08-23 14:38:00,
2013-08-23 10:40:00,76.8,67.8,29.95,NE,34,8.0,14.0,74,0.00,,,0.00,meteohub,2013-08-23 14:40:00,
2013-08-23 10:42:00,77.0,68.0,29.95,NNE,24,5.0,14.0,74,0.00,,,0.00,meteohub,2013-08-23 14:42:00,
2013-08-23 10:43:00,77.2,67.8,29.96,NNE,17,12.0,14.0,73,0.00,,,0.00,meteohub,2013-08-23 14:43:00,
2013-08-23 10:44:00,77.2,67.8,29.96,NNE,14,5.0,14.0,73,0.00,,,0.00,meteohub,2013-08-23 14:44:00,
2013-08-23 10:46:00,77.4,68.0,29.96,North,5,8.0,13.0,73,0.00,,,0.00,meteohub,2013-08-23 14:46:00,
2013-08-23 10:47:00,77.4,68.0,29.96,NNW,340,2.0,13.0,73,0.00,,,0.00,meteohub,2013-08-23 14:47:00,
2013-08-23 10:48:00,77.4,68.0,29.96,NE,45,4.0,13.0,73,0.00,,,0.00,meteohub,2013-08-23 14:48:00,
2013-08-23 10:49:00,77.4,68.0,29.96,NE,45,2.0,13.0,73,0.00,,,0.00,meteohub,2013-08-23 14:49:00,
2013-08-23 10:51:00,77.4,68.0,29.96,NE,46,4.0,13.0,73,0.00,,,0.00,meteohub,2013-08-23 14:51:00,
2013-08-23 10:53:00,77.4,67.6,29.95,North,0,6.0,13.0,72,0.00,,,0.00,meteohub,2013-08-23 14:53:00,
2013-08-23 10:54:00,77.4,67.6,29.95,NNE,31,10.0,13.0,72,0.00,,,0.00,meteohub,2013-08-23 14:54:00,
2013-08-23 10:56:00,77.4,68.0,29.95,NNE,15,9.0,13.0,73,0.00,,,0.00,meteohub,2013-08-23 14:56:00,
2013-08-23 10:58:00,77.2,67.8,29.95,NNW,340,6.0,13.0,73,0.00,,,0.00,meteohub,2013-08-23 14:58:00,
2013-08-23 10:59:00,77.2,67.8,29.95,NNE,33,6.0,13.0,73,0.00,,,0.00,meteohub,2013-08-23 14:59:00,
2013-08-23 11:01:00,77.0,68.0,29.95,North,355,5.0,12.0,74,0.00,,,0.00,meteohub,2013-08-23 15:01:00,
2013-08-23 11:03:00,76.8,67.8,29.96,NE,40,5.0,12.0,74,0.00,,,0.00,meteohub,2013-08-23 15:03:00,
2013-08-23 11:06:00,76.8,67.8,29.96,North,355,3.0,15.0,74,0.00,,,0.00,meteohub,2013-08-23 15:06:00,
2013-08-23 11:08:00,76.8,66.7,29.96,North,0,6.0,15.0,71,0.00,,,0.00,meteohub,2013-08-23 15:08:00,
2013-08-23 11:11:00,76.8,65.8,29.96,North,355,9.0,15.0,69,0.00,,,0.00,meteohub,2013-08-23 15:11:00,
2013-08-23 11:12:00,76.8,65.8,29.96,North,11,4.0,15.0,69,0.00,,,0.00,meteohub,2013-08-23 15:12:00,
2013-08-23 11:13:00,76.8,65.8,29.96,North,5,10.0,15.0,69,0.00,,,0.00,meteohub,2013-08-23 15:13:00,
2013-08-23 11:14:00,76.8,65.5,29.96,NNE,17,8.0,15.0,68,0.00,,,0.00,meteohub,2013-08-23 15:14:00,
2013-08-23 11:16:00,77.0,65.7,29.96,NNE,32,5.0,15.0,68,0.00,,,0.00,meteohub,2013-08-23 15:16:00,
2013-08-23 11:17:00,77.0,65.7,29.96,North,5,6.0,15.0,68,0.00,,,0.00,meteohub,2013-08-23 15:17:00,
2013-08-23 11:19:00,77.2,65.8,29.96,NE,41,4.0,15.0,68,0.00,,,0.00,meteohub,2013-08-23 15:19:00,
2013-08-23 11:21:00,77.2,65.3,29.96,NNE,17,12.0,14.0,67,0.00,,,0.00,meteohub,2013-08-23 15:21:00,
2013-08-23 11:22:00,77.2,65.3,29.96,NE,40,12.0,14.0,67,0.00,,,0.00,meteohub,2013-08-23 15:22:00,
2013-08-23 11:24:00,76.8,65.5,29.96,NNE,13,4.0,14.0,68,0.00,,,0.00,meteohub,2013-08-23 15:24:00,
2013-08-23 11:27:00,77.0,65.7,29.95,NE,42,7.0,14.0,68,0.00,,,0.00,meteohub,2013-08-23 15:27:00,
2013-08-23 11:28:00,77.0,65.7,29.95,North,5,11.0,14.0,68,0.00,,,0.00,meteohub,2013-08-23 15:28:00,
2013-08-23 11:29:00,77.0,65.7,29.95,NNE,18,8.0,14.0,68,0.00,,,0.00,meteohub,2013-08-23 15:29:00,
2013-08-23 11:30:00,77.0,65.7,29.95,NNE,18,5.0,15.0,68,0.00,,,0.00,meteohub,2013-08-23 15:30:00,
2013-08-23 11:32:00,77.0,65.7,29.95,NE,34,9.0,15.0,68,0.00,,,0.00,meteohub,2013-08-23 15:32:00,
2013-08-23 11:33:00,77.0,65.7,29.95,ENE,64,4.0,15.0,68,0.00,,,0.00,meteohub,2013-08-23 15:33:00,
2013-08-23 11:35:00,77.0,66.0,29.96,NNE,23,5.0,15.0,69,0.00,,,0.00,meteohub,2013-08-23 15:35:00,
2013-08-23 11:36:00,77.0,66.0,29.95,NNE,31,2.0,15.0,69,0.00,,,0.00,meteohub,2013-08-23 15:36:00,
2013-08-23 11:37:00,77.0,66.0,29.95,NNE,21,9.0,15.0,69,0.00,,,0.00,meteohub,2013-08-23 15:37:00,
2013-08-23 11:38:00,77.0,66.0,29.96,NNE,24,8.0,15.0,69,0.00,,,0.00,meteohub,2013-08-23 15:38:00,
2013-08-23 11:40:00,77.0,66.0,29.96,NNE,28,12.0,15.0,69,0.00,,,0.00,meteohub,2013-08-23 15:40:00,
2013-08-23 11:41:00,77.0,66.0,29.96,NNE,19,8.0,14.0,69,0.00,,,0.00,meteohub,2013-08-23 15:41:00,
2013-08-23 11:42:00,77.0,65.7,29.96,NNE,15,9.0,14.0,68,0.00,,,0.00,meteohub,2013-08-23 15:42:00,
2013-08-23 11:43:00,77.0,65.7,29.96,NE,37,7.0,14.0,68,0.00,,,0.00,meteohub,2013-08-23 15:43:00,
2013-08-23 11:44:00,77.0,66.0,29.96,NE,46,5.0,14.0,69,0.00,,,0.00,meteohub,2013-08-23 15:44:00,
2013-08-23 11:45:00,77.0,66.0,29.96,NNE,28,5.0,15.0,69,0.00,,,0.00,meteohub,2013-08-23 15:45:00,
2013-08-23 11:46:00,77.2,66.2,29.96,NE,42,5.0,15.0,69,0.00,,,0.00,meteohub,2013-08-23 15:46:00,
2013-08-23 11:48:00,77.4,66.0,29.95,ENE,59,3.0,15.0,68,0.00,,,0.00,meteohub,2013-08-23 15:48:00,
2013-08-23 11:49:00,77.4,66.0,29.95,NNE,20,4.0,15.0,68,0.00,,,0.00,meteohub,2013-08-23 15:49:00,
2013-08-23 11:50:00,77.5,65.7,29.95,North,5,5.0,15.0,67,0.00,,,0.00,meteohub,2013-08-23 15:50:00,
2013-08-23 11:51:00,77.5,66.2,29.95,NNE,20,2.0,15.0,68,0.00,,,0.00,meteohub,2013-08-23 15:51:00,
2013-08-23 11:53:00,77.7,65.8,29.95,North,11,11.0,15.0,67,0.00,,,0.00,meteohub,2013-08-23 15:53:00,
2013-08-23 11:54:00,77.7,65.8,29.96,NNE,22,11.0,15.0,67,0.00,,,0.00,meteohub,2013-08-23 15:54:00,
2013-08-23 11:56:00,77.5,65.7,29.96,North,0,4.0,12.0,67,0.00,,,0.00,meteohub,2013-08-23 15:56:00,
2013-08-23 11:58:00,77.5,65.7,29.96,NE,45,3.0,12.0,67,0.00,,,0.00,meteohub,2013-08-23 15:58:00,
2013-08-23 12:00:00,77.4,66.0,29.96,NNE,27,2.0,12.0,68,0.00,,,0.00,meteohub,2013-08-23 16:00:00,
2013-08-23 12:01:00,77.4,66.0,29.96,NNE,22,9.0,14.0,68,0.00,,,0.00,meteohub,2013-08-23 16:01:00,
2013-08-23 12:04:00,77.5,66.2,29.96,NE,41,11.0,14.0,68,0.00,,,0.00,meteohub,2013-08-23 16:04:00,
2013-08-23 12:05:00,77.5,66.2,29.96,NNE,26,10.0,14.0,68,0.00,,,0.00,meteohub,2013-08-23 16:05:00,
2013-08-23 12:06:00,77.5,66.2,29.96,NNE,23,8.0,14.0,68,0.00,,,0.00,meteohub,2013-08-23 16:06:00,
2013-08-23 12:07:00,77.5,65.7,29.96,North,11,7.0,14.0,67,0.00,,,0.00,meteohub,2013-08-23 16:07:00,
2013-08-23 12:09:00,77.4,65.5,29.96,NE,43,6.0,14.0,67,0.00,,,0.00,meteohub,2013-08-23 16:09:00,
2013-08-23 12:11:00,77.4,66.0,29.96,NNE,23,5.0,14.0,68,0.00,,,0.00,meteohub,2013-08-23 16:11:00,
2013-08-23 12:12:00,77.4,66.0,29.96,NNE,28,3.0,14.0,68,0.00,,,0.00,meteohub,2013-08-23 16:12:00,
2013-08-23 12:13:00,77.4,66.0,29.96,NNE,27,8.0,14.0,68,0.00,,,0.00,meteohub,2013-08-23 16:13:00,
2013-08-23 12:15:00,77.4,65.5,29.96,NE,36,5.0,14.0,67,0.00,,,0.00,meteohub,2013-08-23 16:15:00,
2013-08-23 12:16:00,77.4,65.5,29.96,North,5,10.0,13.0,67,0.00,,,0.00,meteohub,2013-08-23 16:16:00,
2013-08-23 12:17:00,77.4,65.5,29.96,NNE,21,5.0,13.0,67,0.00,,,0.00,meteohub,2013-08-23 16:17:00,
2013-08-23 12:18:00,77.4,65.5,29.96,NNE,27,5.0,13.0,67,0.00,,,0.00,meteohub,2013-08-23 16:18:00,
2013-08-23 12:20:00,77.2,65.3,29.96,NNE,18,11.0,13.0,67,0.00,,,0.00,meteohub,2013-08-23 16:20:00,
2013-08-23 12:21:00,77.2,65.3,29.96,NNE,13,11.0,13.0,67,0.00,,,0.00,meteohub,2013-08-23 16:21:00,
2013-08-23 12:22:00,77.2,65.3,29.96,NNE,23,8.0,13.0,67,0.00,,,0.00,meteohub,2013-08-23 16:22:00,
2013-08-23 12:23:00,77.2,65.8,29.96,NNE,33,4.0,13.0,68,0.00,,,0.00,meteohub,2013-08-23 16:23:00,
2013-08-23 12:25:00,77.4,66.0,29.96,NNE,29,3.0,13.0,68,0.00,,,0.00,meteohub,2013-08-23 16:25:00,
2013-08-23 12:26:00,77.4,66.0,29.96,NNE,15,10.0,12.0,68,0.00,,,0.00,meteohub,2013-08-23 16:26:00,
2013-08-23 12:28:00,77.5,66.2,29.96,NE,49,2.0,12.0,68,0.00,,,0.00,meteohub,2013-08-23 16:28:00,
2013-08-23 12:30:00,77.7,65.8,29.96,North,5,8.0,12.0,67,0.00,,,0.00,meteohub,2013-08-23 16:30:00,
2013-08-23 12:31:00,77.7,65.8,29.96,NNE,19,10.0,12.0,67,0.00,,,0.00,meteohub,2013-08-23 16:31:00,
2013-08-23 12:33:00,77.9,65.7,29.96,NE,38,5.0,12.0,66,0.00,,,0.00,meteohub,2013-08-23 16:33:00,
2013-08-23 12:34:00,77.9,65.7,29.96,NE,36,9.0,12.0,66,0.00,,,0.00,meteohub,2013-08-23 16:34:00,
2013-08-23 12:35:00,77.7,65.5,29.96,NNE,14,7.0,14.0,66,0.00,,,0.00,meteohub,2013-08-23 16:35:00,
2013-08-23 12:36:00,77.7,65.5,29.96,ENE,71,4.0,14.0,66,0.00,,,0.00,meteohub,2013-08-23 16:36:00,
2013-08-23 12:39:00,77.7,65.8,29.96,NE,46,3.0,14.0,67,0.00,,,0.00,meteohub,2013-08-23 16:39:00,
2013-08-23 12:40:00,77.7,65.8,29.96,NNE,14,1.0,14.0,67,0.00,,,0.00,meteohub,2013-08-23 16:40:00,
2013-08-23 12:41:00,77.7,66.4,29.96,NNW,348,3.0,14.0,68,0.00,,,0.00,meteohub,2013-08-23 16:41:00,
2013-08-23 12:42:00,77.9,66.6,29.96,North,10,3.0,14.0,68,0.00,,,0.00,meteohub,2013-08-23 16:42:00,
2013-08-23 12:44:00,78.1,66.2,29.96,North,355,4.0,14.0,67,0.00,,,0.00,meteohub,2013-08-23 16:44:00,
2013-08-23 12:46:00,78.1,66.7,29.96,NNE,12,7.0,14.0,68,0.00,,,0.00,meteohub,2013-08-23 16:46:00,
2013-08-23 12:47:00,78.1,66.7,29.96,NNE,15,7.0,14.0,68,0.00,,,0.00,meteohub,2013-08-23 16:47:00,
2013-08-23 12:49:00,77.9,66.6,29.96,NNE,17,5.0,14.0,68,0.00,,,0.00,meteohub,2013-08-23 16:49:00,
2013-08-23 12:50:00,77.7,66.4,29.96,North,5,5.0,14.0,68,0.00,,,0.00,meteohub,2013-08-23 16:50:00,
2013-08-23 12:51:00,77.7,66.7,29.96,NNE,23,9.0,12.0,69,0.00,,,0.00,meteohub,2013-08-23 16:51:00,
2013-08-23 12:53:00,77.7,66.7,29.96,North,355,5.0,12.0,69,0.00,,,0.00,meteohub,2013-08-23 16:53:00,
2013-08-23 12:54:00,77.7,66.4,29.96,NE,36,4.0,12.0,68,0.00,,,0.00,meteohub,2013-08-23 16:54:00,
2013-08-23 12:55:00,77.7,66.4,29.96,NNW,346,2.0,12.0,68,0.00,,,0.00,meteohub,2013-08-23 16:55:00,
2013-08-23 12:56:00,77.7,66.4,29.97,ENE,57,4.0,12.0,68,0.00,,,0.00,meteohub,2013-08-23 16:56:00,
2013-08-23 12:58:00,78.1,66.7,29.96,North,11,2.0,12.0,68,0.00,,,0.00,meteohub,2013-08-23 16:58:00,
2013-08-23 13:00:00,78.3,66.4,29.96,NNE,24,6.0,12.0,67,0.00,,,0.00,meteohub,2013-08-23 17:00:00,
2013-08-23 13:01:00,78.3,66.4,29.96,North,11,5.0,12.0,67,0.00,,,0.00,meteohub,2013-08-23 17:01:00,
2013-08-23 13:03:00,78.3,66.4,29.97,NE,38,1.0,12.0,67,0.00,,,0.00,meteohub,2013-08-23 17:03:00,
2013-08-23 13:06:00,78.4,66.6,29.97,NNE,25,5.0,10.0,67,0.00,,,0.00,meteohub,2013-08-23 17:06:00,
2013-08-23 13:07:00,78.4,66.6,29.97,NE,35,7.0,10.0,67,0.00,,,0.00,meteohub,2013-08-23 17:07:00,
2013-08-23 13:08:00,78.4,66.6,29.97,North,5,4.0,10.0,67,0.00,,,0.00,meteohub,2013-08-23 17:08:00,
2013-08-23 13:11:00,78.4,66.2,29.97,NNE,29,6.0,10.0,66,0.00,,,0.00,meteohub,2013-08-23 17:11:00,
2013-08-23 13:12:00,78.4,66.2,29.97,NNE,18,4.0,10.0,66,0.00,,,0.00,meteohub,2013-08-23 17:12:00,
2013-08-23 13:14:00,78.4,66.2,29.97,NNE,14,4.0,10.0,66,0.00,,,0.00,meteohub,2013-08-23 17:14:00,
2013-08-23 13:17:00,78.4,66.2,29.97,North,5,3.0,10.0,66,0.00,,,0.00,meteohub,2013-08-23 17:17:00,
2013-08-23 13:19:00,78.3,66.0,29.97,NNE,24,5.0,10.0,66,0.00,,,0.00,meteohub,2013-08-23 17:19:00,
2013-08-23 13:22:00,78.3,66.0,29.97,NE,34,8.0,9.0,66,0.00,,,0.00,meteohub,2013-08-23 17:22:00,
2013-08-23 13:23:00,78.3,66.0,29.97,NNE,32,8.0,9.0,66,0.00,,,0.00,meteohub,2013-08-23 17:23:00,
2013-08-23 13:24:00,78.3,66.0,29.97,NNE,27,5.0,9.0,66,0.00,,,0.00,meteohub,2013-08-23 17:24:00,
2013-08-23 13:27:00,78.1,65.8,29.97,NNE,14,7.0,9.0,66,0.00,,,0.00,meteohub,2013-08-23 17:27:00,
2013-08-23 13:28:00,78.1,66.2,29.97,North,5,4.0,9.0,67,0.00,,,0.00,meteohub,2013-08-23 17:28:00,
2013-08-23 13:30:00,78.1,66.2,29.97,NNE,14,3.0,9.0,67,0.00,,,0.00,meteohub,2013-08-23 17:30:00,
2013-08-23 13:32:00,78.3,66.4,29.97,NW,312,1.0,9.0,67,0.00,,,0.00,meteohub,2013-08-23 17:32:00,
2013-08-23 13:33:00,78.3,66.4,29.97,NNW,333,1.0,9.0,67,0.00,,,0.00,meteohub,2013-08-23 17:33:00,
2013-08-23 13:35:00,78.3,66.4,29.97,North,0,5.0,9.0,67,0.00,,,0.00,meteohub,2013-08-23 17:35:00,
2013-08-23 13:38:00,78.3,66.0,29.97,NNE,13,8.0,9.0,66,0.00,,,0.00,meteohub,2013-08-23 17:38:00,
2013-08-23 13:39:00,78.3,66.0,29.97,NNE,21,3.0,9.0,66,0.00,,,0.00,meteohub,2013-08-23 17:39:00,
2013-08-23 13:40:00,78.1,65.8,29.97,NNE,19,3.0,10.0,66,0.00,,,0.00,meteohub,2013-08-23 17:40:00,
2013-08-23 13:43:00,78.1,65.8,29.97,NNE,30,5.0,10.0,66,0.00,,,0.00,meteohub,2013-08-23 17:43:00,
2013-08-23 13:44:00,78.1,65.8,29.97,NNE,25,3.0,10.0,66,0.00,,,0.00,meteohub,2013-08-23 17:44:00,
2013-08-23 13:45:00,78.1,65.8,29.97,NE,41,2.0,10.0,66,0.00,,,0.00,meteohub,2013-08-23 17:45:00,
2013-08-23 13:48:00,78.1,65.8,29.97,NE,40,3.0,10.0,66,0.00,,,0.00,meteohub,2013-08-23 17:48:00,
2013-08-23 13:49:00,78.1,65.8,29.97,North,351,4.0,10.0,66,0.00,,,0.00,meteohub,2013-08-23 17:49:00,
2013-08-23 13:50:00,78.1,65.8,29.97,NNE,24,0.0,10.0,66,0.00,,,0.00,meteohub,2013-08-23 17:50:00,
2013-08-23 13:51:00,78.1,65.8,29.97,NE,38,2.0,10.0,66,0.00,,,0.00,meteohub,2013-08-23 17:51:00,
2013-08-23 13:53:00,78.1,65.8,29.97,North,5,1.0,10.0,66,0.00,,,0.00,meteohub,2013-08-23 17:53:00,
2013-08-23 13:54:00,78.1,65.8,29.97,ENE,66,3.0,10.0,66,0.00,,,0.00,meteohub,2013-08-23 17:54:00,
2013-08-23 13:56:00,78.3,66.4,29.97,WNW,286,2.0,7.0,67,0.00,,,0.00,meteohub,2013-08-23 17:56:00,
2013-08-23 13:58:00,78.3,65.1,29.97,WSW,240,1.0,7.0,64,0.00,,,0.00,meteohub,2013-08-23 17:58:00,
2013-08-23 13:59:00,78.3,64.6,29.97,NW,323,1.0,7.0,63,0.00,,,0.00,meteohub,2013-08-23 17:59:00,
2013-08-23 14:00:00,78.3,64.6,29.97,North,5,1.0,7.0,63,0.00,,,0.00,meteohub,2013-08-23 18:00:00,
2013-08-23 14:02:00,78.3,64.2,29.97,NE,35,0.0,7.0,62,0.00,,,0.00,meteohub,2013-08-23 18:02:00,
2013-08-23 14:04:00,78.4,64.4,29.97,WSW,256,0.0,7.0,62,0.00,,,0.00,meteohub,2013-08-23 18:04:00,
2013-08-23 14:05:00,78.4,64.4,29.97,WSW,248,0.0,7.0,62,0.00,,,0.00,meteohub,2013-08-23 18:05:00,
2013-08-23 14:07:00,78.6,64.6,29.97,WSW,248,1.0,7.0,62,0.00,,,0.00,meteohub,2013-08-23 18:07:00,
2013-08-23 14:09:00,78.6,64.6,29.97,West,274,0.0,7.0,62,0.00,,,0.00,meteohub,2013-08-23 18:09:00,
2013-08-23 14:10:00,78.6,64.6,29.97,West,274,0.0,7.0,62,0.00,,,0.00,meteohub,2013-08-23 18:10:00,
2013-08-23 14:11:00,78.6,64.6,29.97,West,274,0.0,7.0,62,0.00,,,0.00,meteohub,2013-08-23 18:11:00,
2013-08-23 14:12:00,78.6,64.6,29.97,West,274,2.0,7.0,62,0.00,,,0.00,meteohub,2013-08-23 18:12:00,
2013-08-23 14:15:00,78.6,64.6,29.97,NE,39,1.0,7.0,62,0.00,,,0.00,meteohub,2013-08-23 18:15:00,
2013-08-23 14:16:00,78.6,64.9,29.97,NE,40,2.0,4.0,63,0.00,,,0.00,meteohub,2013-08-23 18:16:00,
2013-08-23 14:17:00,78.6,65.8,29.96,ENE,57,3.0,4.0,65,0.00,,,0.00,meteohub,2013-08-23 18:17:00,
2013-08-23 14:18:00,78.4,66.6,29.97,NE,44,3.0,4.0,67,0.00,,,0.00,meteohub,2013-08-23 18:18:00,
2013-08-23 14:20:00,78.3,66.0,29.96,NE,55,2.0,4.0,66,0.00,,,0.00,meteohub,2013-08-23 18:20:00,
2013-08-23 14:21:00,78.1,66.2,29.96,NE,55,3.0,5.0,67,0.00,,,0.00,meteohub,2013-08-23 18:21:00,
2013-08-23 14:22:00,78.1,66.7,29.96,ENE,63,4.0,5.0,68,0.00,,,0.00,meteohub,2013-08-23 18:22:00,
2013-08-23 14:23:00,77.5,66.9,29.96,NNE,28,5.0,5.0,70,0.00,,,0.00,meteohub,2013-08-23 18:23:00,
2013-08-23 14:25:00,77.2,67.1,29.96,ENE,61,5.0,5.0,71,0.00,,,0.00,meteohub,2013-08-23 18:25:00,
2013-08-23 14:26:00,76.8,67.1,29.96,ENE,65,3.0,5.0,72,0.00,,,0.00,meteohub,2013-08-23 18:26:00,
2013-08-23 14:27:00,76.6,66.9,29.96,ENE,69,4.0,5.0,72,0.00,,,0.00,meteohub,2013-08-23 18:27:00,
2013-08-23 14:29:00,76.3,66.9,29.96,NE,50,3.0,5.0,73,0.00,,,0.00,meteohub,2013-08-23 18:29:00,
2013-08-23 14:31:00,75.7,66.9,29.96,NE,52,2.0,5.0,74,0.00,,,0.00,meteohub,2013-08-23 18:31:00,
2013-08-23 14:32:00,75.6,67.1,29.96,NE,50,2.0,5.0,75,0.00,,,0.00,meteohub,2013-08-23 18:32:00,
2013-08-23 14:34:00,75.6,67.1,29.96,East,81,7.0,7.0,75,0.00,,,0.00,meteohub,2013-08-23 18:34:00,
2013-08-23 14:36:00,75.2,67.1,29.96,NE,35,3.0,6.0,76,0.00,,,0.00,meteohub,2013-08-23 18:36:00,
2013-08-23 14:37:00,75.0,66.9,29.96,ENE,58,4.0,6.0,76,0.00,,,0.00,meteohub,2013-08-23 18:37:00,
2013-08-23 14:38:00,75.0,66.9,29.96,NE,53,5.0,6.0,76,0.00,,,0.00,meteohub,2013-08-23 18:38:00,
2013-08-23 14:39:00,75.0,67.3,29.96,NE,46,5.0,6.0,77,0.00,,,0.00,meteohub,2013-08-23 18:39:00,
2013-08-23 14:41:00,75.0,67.3,29.96,ENE,61,3.0,7.0,77,0.00,,,0.00,meteohub,2013-08-23 18:41:00,
2013-08-23 14:42:00,75.0,67.3,29.96,NE,50,5.0,7.0,77,0.00,,,0.00,meteohub,2013-08-23 18:42:00,
2013-08-23 14:43:00,74.8,67.1,29.96,ENE,65,3.0,7.0,77,0.00,,,0.00,meteohub,2013-08-23 18:43:00,
2013-08-23 14:44:00,74.8,67.5,29.96,ENE,58,4.0,7.0,78,0.00,,,0.00,meteohub,2013-08-23 18:44:00,
2013-08-23 14:47:00,74.8,67.5,29.96,East,82,3.0,7.0,78,0.00,,,0.00,meteohub,2013-08-23 18:47:00,
2013-08-23 14:48:00,74.8,67.5,29.96,NE,51,3.0,7.0,78,0.00,,,0.00,meteohub,2013-08-23 18:48:00,
2013-08-23 14:50:00,74.8,67.8,29.96,ENE,61,1.0,7.0,79,0.00,,,0.00,meteohub,2013-08-23 18:50:00,
2013-08-23 14:52:00,74.8,67.8,29.96,NE,50,1.0,6.0,79,0.00,,,0.00,meteohub,2013-08-23 18:52:00,
2013-08-23 14:54:00,74.7,67.6,29.96,ENE,66,4.0,6.0,79,0.00,,,0.00,meteohub,2013-08-23 18:54:00,
2013-08-23 14:55:00,74.7,67.6,29.96,ENE,64,2.0,6.0,79,0.00,,,0.00,meteohub,2013-08-23 18:55:00,
2013-08-23 14:57:00,74.7,67.6,29.96,East,80,3.0,6.0,79,0.00,,,0.00,meteohub,2013-08-23 18:57:00,
2013-08-23 14:58:00,74.7,67.6,29.96,ENE,61,2.0,6.0,79,0.00,,,0.00,meteohub,2013-08-23 18:58:00,
2013-08-23 14:59:00,74.7,67.6,29.96,ENE,57,4.0,6.0,79,0.00,,,0.00,meteohub,2013-08-23 18:59:00,
2013-08-23 15:01:00,74.7,67.3,29.96,NE,51,2.0,6.0,78,0.00,,,0.00,meteohub,2013-08-23 19:01:00,
2013-08-23 15:03:00,74.7,67.6,29.96,NE,55,3.0,6.0,79,0.00,,,0.00,meteohub,2013-08-23 19:03:00,
2013-08-23 15:04:00,74.7,67.3,29.96,NE,49,4.0,6.0,78,0.00,,,0.00,meteohub,2013-08-23 19:04:00,
2013-08-23 15:06:00,74.7,67.3,29.96,NE,37,2.0,6.0,78,0.00,,,0.00,meteohub,2013-08-23 19:06:00,
2013-08-23 15:07:00,74.7,67.3,29.96,NE,48,2.0,6.0,78,0.00,,,0.00,meteohub,2013-08-23 19:07:00,
2013-08-23 15:08:00,74.8,67.5,29.96,ENE,58,2.0,6.0,78,0.00,,,0.00,meteohub,2013-08-23 19:08:00,
2013-08-23 15:09:00,74.8,67.5,29.96,NNE,30,3.0,6.0,78,0.00,,,0.00,meteohub,2013-08-23 19:09:00,
2013-08-23 15:11:00,74.8,67.5,29.96,ENE,70,2.0,5.0,78,0.00,,,0.00,meteohub,2013-08-23 19:11:00,
2013-08-23 15:13:00,74.8,67.5,29.96,NE,35,2.0,5.0,78,0.00,,,0.00,meteohub,2013-08-23 19:13:00,
2013-08-23 15:14:00,74.8,67.5,29.96,NE,34,3.0,5.0,78,0.00,,,0.00,meteohub,2013-08-23 19:14:00,
2013-08-23 15:15:00,74.8,67.5,29.96,NE,44,1.0,5.0,78,0.00,,,0.00,meteohub,2013-08-23 19:15:00,
2013-08-23 15:17:00,74.8,67.5,29.96,NE,51,4.0,5.0,78,0.00,,,0.00,meteohub,2013-08-23 19:17:00,
2013-08-23 15:18:00,74.8,67.1,29.97,NE,46,3.0,5.0,77,0.00,,,0.00,meteohub,2013-08-23 19:18:00,
2013-08-23 15:19:00,74.8,67.5,29.96,ENE,62,2.0,5.0,78,0.00,,,0.00,meteohub,2013-08-23 19:19:00,
2013-08-23 15:20:00,74.8,67.1,29.96,NE,56,3.0,5.0,77,0.00,,,0.00,meteohub,2013-08-23 19:20:00,
2013-08-23 15:22:00,74.8,67.5,29.97,ENE,67,1.0,5.0,78,0.00,,,0.00,meteohub,2013-08-23 19:22:00,
2013-08-23 15:24:00,74.8,67.5,29.96,ENE,65,1.0,5.0,78,0.00,,,0.00,meteohub,2013-08-23 19:24:00,
2013-08-23 15:25:00,74.8,67.5,29.96,ENE,74,2.0,5.0,78,0.00,,,0.00,meteohub,2013-08-23 19:25:00,
2013-08-23 15:27:00,74.8,67.5,29.96,NE,46,2.0,5.0,78,0.00,,,0.00,meteohub,2013-08-23 19:27:00,
2013-08-23 15:29:00,74.8,67.5,29.96,NE,46,0.0,5.0,78,0.00,,,0.00,meteohub,2013-08-23 19:29:00,
2013-08-23 15:30:00,75.0,68.0,29.96,NE,46,1.0,5.0,79,0.00,,,0.00,meteohub,2013-08-23 19:30:00,
2013-08-23 15:31:00,75.0,68.0,29.96,NE,46,0.0,5.0,79,0.00,,,0.00,meteohub,2013-08-23 19:31:00,
2013-08-23 15:33:00,75.0,68.0,29.96,NE,46,1.0,5.0,79,0.00,,,0.00,meteohub,2013-08-23 19:33:00,
2013-08-23 15:34:00,75.0,68.0,29.96,NE,46,0.0,5.0,79,0.00,,,0.00,meteohub,2013-08-23 19:34:00,
2013-08-23 15:35:00,75.2,68.2,29.96,NE,46,1.0,5.0,79,0.00,,,0.00,meteohub,2013-08-23 19:35:00,
2013-08-23 15:36:00,75.2,68.2,29.96,NE,46,0.0,4.0,79,0.00,,,0.00,meteohub,2013-08-23 19:36:00,
2013-08-23 15:37:00,75.2,68.2,29.96,NE,46,0.0,4.0,79,0.00,,,0.00,meteohub,2013-08-23 19:37:00,
2013-08-23 15:38:00,75.4,68.4,29.96,NE,46,2.0,4.0,79,0.00,,,0.00,meteohub,2013-08-23 19:38:00,
2013-08-23 15:39:00,75.4,68.4,29.96,NNE,19,3.0,4.0,79,0.00,,,0.00,meteohub,2013-08-23 19:39:00,
2013-08-23 15:41:00,75.4,68.4,29.96,NE,38,2.0,3.0,79,0.00,,,0.00,meteohub,2013-08-23 19:41:00,
2013-08-23 15:42:00,75.4,68.4,29.96,East,81,0.0,3.0,79,0.00,,,0.00,meteohub,2013-08-23 19:42:00,
2013-08-23 15:44:00,75.4,68.0,29.96,ENE,71,3.0,3.0,78,0.00,,,0.00,meteohub,2013-08-23 19:44:00,
2013-08-23 15:45:00,75.4,68.0,29.96,NE,53,2.0,3.0,78,0.00,,,0.00,meteohub,2013-08-23 19:45:00,
2013-08-23 15:46:00,75.4,68.0,29.96,NE,39,1.0,4.0,78,0.00,,,0.00,meteohub,2013-08-23 19:46:00,
2013-08-23 15:47:00,75.4,68.0,29.96,NNE,30,2.0,4.0,78,0.00,,,0.00,meteohub,2013-08-23 19:47:00,
2013-08-23 15:48:00,75.4,68.0,29.96,NE,55,3.0,4.0,78,0.00,,,0.00,meteohub,2013-08-23 19:48:00,
2013-08-23 15:49:00,75.4,68.0,29.96,ENE,78,1.0,4.0,78,0.00,,,0.00,meteohub,2013-08-23 19:49:00,
2013-08-23 15:51:00,75.4,68.0,29.96,ENE,78,0.0,4.0,78,0.00,,,0.00,meteohub,2013-08-23 19:51:00,
2013-08-23 15:52:00,75.4,67.6,29.96,ENE,78,1.0,4.0,77,0.00,,,0.00,meteohub,2013-08-23 19:52:00,
2013-08-23 15:53:00,75.4,67.6,29.96,East,80,0.0,4.0,77,0.00,,,0.00,meteohub,2013-08-23 19:53:00,
2013-08-23 15:54:00,75.4,67.3,29.96,East,80,0.0,4.0,76,0.00,,,0.00,meteohub,2013-08-23 19:54:00,
2013-08-23 15:56:00,75.6,67.5,29.96,East,80,0.0,4.0,76,0.00,,,0.00,meteohub,2013-08-23 19:56:00,
2013-08-23 15:57:00,75.6,67.5,29.96,East,80,0.0,4.0,76,0.00,,,0.00,meteohub,2013-08-23 19:57:00,
2013-08-23 15:58:00,75.7,67.6,29.96,East,80,0.0,4.0,76,0.00,,,0.00,meteohub,2013-08-23 19:58:00,
2013-08-23 15:59:00,75.7,67.6,29.96,East,80,0.0,4.0,76,0.00,,,0.00,meteohub,2013-08-23 19:59:00,
2013-08-23 16:01:00,76.3,67.8,29.96,East,80,0.0,4.0,75,0.00,,,0.00,meteohub,2013-08-23 20:01:00,
2013-08-23 16:02:00,76.3,67.8,29.96,East,80,0.0,4.0,75,0.00,,,0.00,meteohub,2013-08-23 20:02:00,
2013-08-23 16:04:00,76.6,66.9,29.96,WNW,288,4.0,4.0,72,0.00,,,0.00,meteohub,2013-08-23 20:04:00,
2013-08-23 16:06:00,77.2,66.2,29.96,SW,236,0.0,2.0,69,0.00,,,0.00,meteohub,2013-08-23 20:06:00,
2013-08-23 16:07:00,77.2,66.2,29.96,SW,236,0.0,2.0,69,0.00,,,0.00,meteohub,2013-08-23 20:07:00,
2013-08-23 16:09:00,77.5,65.3,29.96,NNE,31,4.0,4.0,66,0.00,,,0.00,meteohub,2013-08-23 20:09:00,
2013-08-23 16:10:00,77.7,65.5,29.96,NNW,334,1.0,2.0,66,0.00,,,0.00,meteohub,2013-08-23 20:10:00,
2013-08-23 16:12:00,78.1,65.3,29.96,NW,308,1.0,6.0,65,0.00,,,0.00,meteohub,2013-08-23 20:12:00,
2013-08-23 16:13:00,78.4,65.3,29.96,NW,312,0.0,6.0,64,0.00,,,0.00,meteohub,2013-08-23 20:13:00,
2013-08-23 16:15:00,78.8,65.1,29.96,NW,312,0.0,6.0,63,0.00,,,0.00,meteohub,2013-08-23 20:15:00,
2013-08-23 16:16:00,79.0,65.3,29.96,NW,312,0.0,7.0,63,0.00,,,0.00,meteohub,2013-08-23 20:16:00,
2013-08-23 16:17:00,79.2,65.5,29.96,WNW,294,1.0,7.0,63,0.00,,,0.00,meteohub,2013-08-23 20:17:00,
2013-08-23 16:18:00,79.3,64.2,29.96,NNE,30,2.0,7.0,60,0.00,,,0.00,meteohub,2013-08-23 20:18:00,
2013-08-23 16:20:00,79.5,64.4,29.96,NNE,14,1.0,7.0,60,0.00,,,0.00,meteohub,2013-08-23 20:20:00,
2013-08-23 16:21:00,79.5,64.4,29.96,NW,325,1.0,7.0,60,0.00,,,0.00,meteohub,2013-08-23 20:21:00,
2013-08-23 16:22:00,79.5,64.9,29.96,North,0,1.0,7.0,61,0.00,,,0.00,meteohub,2013-08-23 20:22:00,
2013-08-23 16:24:00,79.5,64.4,29.96,West,276,1.0,7.0,60,0.00,,,0.00,meteohub,2013-08-23 20:24:00,
2013-08-23 16:25:00,79.5,64.4,29.96,North,355,3.0,4.0,60,0.00,,,0.00,meteohub,2013-08-23 20:25:00,
2013-08-23 16:26:00,79.5,64.4,29.96,NNE,22,2.0,4.0,60,0.00,,,0.00,meteohub,2013-08-23 20:26:00,
2013-08-23 16:27:00,79.5,64.4,29.96,NE,40,1.0,4.0,60,0.00,,,0.00,meteohub,2013-08-23 20:27:00,
2013-08-23 16:28:00,79.5,63.9,29.96,NNE,26,3.0,4.0,59,0.00,,,0.00,meteohub,2013-08-23 20:28:00,
2013-08-23 16:29:00,79.5,63.5,29.96,North,0,0.0,4.0,58,0.00,,,0.00,meteohub,2013-08-23 20:29:00,
2013-08-23 16:30:00,79.5,63.9,29.96,WNW,299,2.0,5.0,59,0.00,,,0.00,meteohub,2013-08-23 20:30:00,
2013-08-23 16:31:00,79.5,63.9,29.96,WNW,292,0.0,5.0,59,0.00,,,0.00,meteohub,2013-08-23 20:31:00,
2013-08-23 16:32:00,79.5,63.9,29.96,West,279,0.0,5.0,59,0.00,,,0.00,meteohub,2013-08-23 20:32:00,
2013-08-23 16:33:00,79.5,63.9,29.96,WNW,290,5.0,5.0,59,0.00,,,0.00,meteohub,2013-08-23 20:33:00,
2013-08-23 16:35:00,79.5,63.5,29.96,West,277,4.0,5.0,58,0.00,,,0.00,meteohub,2013-08-23 20:35:00,
2013-08-23 16:36:00,79.5,63.5,29.96,East,81,1.0,7.0,58,0.00,,,0.00,meteohub,2013-08-23 20:36:00,
2013-08-23 16:38:00,79.5,63.5,29.96,North,0,2.0,7.0,58,0.00,,,0.00,meteohub,2013-08-23 20:38:00,
2013-08-23 16:40:00,79.5,63.5,29.96,NNW,331,3.0,7.0,58,0.00,,,0.00,meteohub,2013-08-23 20:40:00,
2013-08-23 16:41:00,79.5,63.5,29.96,West,270,1.0,8.0,58,0.00,,,0.00,meteohub,2013-08-23 20:41:00,
2013-08-23 16:43:00,79.5,63.0,29.96,SW,233,0.0,8.0,57,0.00,,,0.00,meteohub,2013-08-23 20:43:00,
2013-08-23 16:45:00,79.5,63.0,29.96,NE,54,1.0,8.0,57,0.00,,,0.00,meteohub,2013-08-23 20:45:00,
2013-08-23 16:46:00,79.5,63.5,29.96,NNW,329,2.0,8.0,58,0.00,,,0.00,meteohub,2013-08-23 20:46:00,
2013-08-23 16:48:00,79.5,63.5,29.96,WSW,252,0.0,8.0,58,0.00,,,0.00,meteohub,2013-08-23 20:48:00,
2013-08-23 16:49:00,79.5,63.5,29.96,WSW,257,2.0,8.0,58,0.00,,,0.00,meteohub,2013-08-23 20:49:00,
2013-08-23 16:50:00,79.5,63.5,29.96,SW,226,1.0,5.0,58,0.00,,,0.00,meteohub,2013-08-23 20:50:00,
2013-08-23 16:52:00,79.3,63.7,29.96,WNW,299,2.0,5.0,59,0.00,,,0.00,meteohub,2013-08-23 20:52:00,
2013-08-23 16:53:00,79.3,63.7,29.96,NNE,19,2.0,5.0,59,0.00,,,0.00,meteohub,2013-08-23 20:53:00,
2013-08-23 16:54:00,79.3,63.3,29.96,NW,304,2.0,5.0,58,0.00,,,0.00,meteohub,2013-08-23 20:54:00,
2013-08-23 16:56:00,79.3,62.8,29.96,NW,311,1.0,5.0,57,0.00,,,0.00,meteohub,2013-08-23 20:56:00,
2013-08-23 16:57:00,79.2,63.1,29.97,NNW,333,0.0,5.0,58,0.00,,,0.00,meteohub,2013-08-23 20:57:00,
2013-08-23 16:59:00,79.2,62.6,29.96,North,355,1.0,5.0,57,0.00,,,0.00,meteohub,2013-08-23 20:59:00,
2013-08-23 17:00:00,79.2,62.6,29.96,WSW,239,1.0,5.0,57,0.00,,,0.00,meteohub,2013-08-23 21:00:00,
2013-08-23 17:01:00,79.0,63.0,29.97,NNW,332,3.0,5.0,58,0.00,,,0.00,meteohub,2013-08-23 21:01:00,
2013-08-23 17:02:00,79.0,63.0,29.97,SW,236,0.0,5.0,58,0.00,,,0.00,meteohub,2013-08-23 21:02:00,
2013-08-23 17:05:00,79.0,63.5,29.97,West,279,0.0,5.0,59,0.00,,,0.00,meteohub,2013-08-23 21:05:00,
2013-08-23 17:06:00,79.0,63.5,29.97,West,278,1.0,6.0,59,0.00,,,0.00,meteohub,2013-08-23 21:06:00,
2013-08-23 17:07:00,79.0,63.5,29.97,NW,321,1.0,6.0,59,0.00,,,0.00,meteohub,2013-08-23 21:07:00,
2013-08-23 17:10:00,79.0,63.9,29.97,NW,323,0.0,6.0,60,0.00,,,0.00,meteohub,2013-08-23 21:10:00,
2013-08-23 17:11:00,79.0,63.9,29.97,NE,42,6.0,6.0,60,0.00,,,0.00,meteohub,2013-08-23 21:11:00,
2013-08-23 17:12:00,79.0,63.9,29.97,NNW,346,1.0,6.0,60,0.00,,,0.00,meteohub,2013-08-23 21:12:00,
2013-08-23 17:15:00,79.0,63.9,29.96,NNW,339,5.0,6.0,60,0.00,,,0.00,meteohub,2013-08-23 21:15:00,
2013-08-23 17:16:00,79.0,63.9,29.96,NW,304,0.0,6.0,60,0.00,,,0.00,meteohub,2013-08-23 21:16:00,
2013-08-23 17:17:00,78.8,64.2,29.96,NNE,24,1.0,6.0,61,0.00,,,0.00,meteohub,2013-08-23 21:17:00,
2013-08-23 17:18:00,78.8,64.2,29.96,North,355,2.0,6.0,61,0.00,,,0.00,meteohub,2013-08-23 21:18:00,
2013-08-23 17:20:00,78.6,64.0,29.96,NNE,19,1.0,6.0,61,0.00,,,0.00,meteohub,2013-08-23 21:20:00,
2013-08-23 17:21:00,78.6,64.0,29.96,NNW,347,0.0,6.0,61,0.00,,,0.00,meteohub,2013-08-23 21:21:00,
2013-08-23 17:22:00,78.6,64.0,29.96,NNW,347,0.0,6.0,61,0.00,,,0.00,meteohub,2013-08-23 21:22:00,
2013-08-23 17:23:00,78.6,64.6,29.96,NW,314,0.0,6.0,62,0.00,,,0.00,meteohub,2013-08-23 21:23:00,
2013-08-23 17:26:00,78.6,64.0,29.96,WSW,238,0.0,6.0,61,0.00,,,0.00,meteohub,2013-08-23 21:26:00,
2013-08-23 17:27:00,78.6,64.0,29.96,NNE,24,2.0,6.0,61,0.00,,,0.00,meteohub,2013-08-23 21:27:00,
2013-08-23 17:28:00,78.6,64.0,29.96,WSW,255,3.0,6.0,61,0.00,,,0.00,meteohub,2013-08-23 21:28:00,
2013-08-23 17:29:00,78.4,63.3,29.96,NNW,330,1.0,6.0,60,0.00,,,0.00,meteohub,2013-08-23 21:29:00,
2013-08-23 17:31:00,78.4,63.9,29.96,SW,225,2.0,4.0,61,0.00,,,0.00,meteohub,2013-08-23 21:31:00,
2013-08-23 17:33:00,78.3,62.8,29.96,NE,41,7.0,7.0,59,0.00,,,0.00,meteohub,2013-08-23 21:33:00,
2013-08-23 17:34:00,78.3,62.8,29.96,NNW,328,5.0,5.0,59,0.00,,,0.00,meteohub,2013-08-23 21:34:00,
2013-08-23 17:35:00,78.3,62.8,29.96,WSW,246,2.0,4.0,59,0.00,,,0.00,meteohub,2013-08-23 21:35:00,
2013-08-23 17:37:00,78.1,63.1,29.96,SSW,204,0.0,9.0,60,0.00,,,0.00,meteohub,2013-08-23 21:37:00,
2013-08-23 17:39:00,77.9,63.0,29.96,West,261,0.0,9.0,60,0.00,,,0.00,meteohub,2013-08-23 21:39:00,
2013-08-23 17:40:00,77.9,63.0,29.96,NE,44,1.0,9.0,60,0.00,,,0.00,meteohub,2013-08-23 21:40:00,
2013-08-23 17:42:00,77.7,62.8,29.96,NW,323,2.0,9.0,60,0.00,,,0.00,meteohub,2013-08-23 21:42:00,
2013-08-23 17:44:00,77.7,62.8,29.96,WNW,283,1.0,9.0,60,0.00,,,0.00,meteohub,2013-08-23 21:44:00,
2013-08-23 17:45:00,77.7,63.1,29.96,SW,236,2.0,9.0,61,0.00,,,0.00,meteohub,2013-08-23 21:45:00,
2013-08-23 17:47:00,77.7,63.1,29.96,WNW,301,1.0,9.0,61,0.00,,,0.00,meteohub,2013-08-23 21:47:00,
2013-08-23 17:49:00,77.5,63.0,29.96,NNW,333,3.0,9.0,61,0.00,,,0.00,meteohub,2013-08-23 21:49:00,
2013-08-23 17:50:00,77.5,63.0,29.96,North,5,2.0,5.0,61,0.00,,,0.00,meteohub,2013-08-23 21:50:00,
2013-08-23 17:52:00,77.5,63.0,29.96,NE,46,4.0,5.0,61,0.00,,,0.00,meteohub,2013-08-23 21:52:00,
2013-08-23 17:55:00,77.4,62.8,29.96,WSW,251,3.0,5.0,61,0.00,,,0.00,meteohub,2013-08-23 21:55:00,
2013-08-23 17:56:00,77.4,62.8,29.96,West,264,1.0,5.0,61,0.00,,,0.00,meteohub,2013-08-23 21:56:00,
2013-08-23 17:57:00,77.2,62.6,29.96,West,266,0.0,5.0,61,0.00,,,0.00,meteohub,2013-08-23 21:57:00,
2013-08-23 17:58:00,77.2,62.6,29.96,West,277,1.0,5.0,61,0.00,,,0.00,meteohub,2013-08-23 21:58:00,
2013-08-23 18:00:00,77.2,63.1,29.96,West,273,1.0,5.0,62,0.00,,,0.00,meteohub,2013-08-23 22:00:00,
2013-08-23 18:02:00,77.2,63.1,29.97,WSW,244,1.0,5.0,62,0.00,,,0.00,meteohub,2013-08-23 22:02:00,
2013-08-23 18:03:00,77.2,63.1,29.97,North,355,0.0,5.0,62,0.00,,,0.00,meteohub,2013-08-23 22:03:00,
2013-08-23 18:04:00,77.0,63.0,29.97,NNE,13,8.0,8.0,62,0.00,,,0.00,meteohub,2013-08-23 22:04:00,
2013-08-23 18:05:00,77.0,63.0,29.97,NNE,12,3.0,5.0,62,0.00,,,0.00,meteohub,2013-08-23 22:05:00,
2013-08-23 18:08:00,76.8,63.3,29.97,SW,233,0.0,8.0,63,0.00,,,0.00,meteohub,2013-08-23 22:08:00,
2013-08-23 18:10:00,76.8,63.3,29.97,NNE,16,7.0,8.0,63,0.00,,,0.00,meteohub,2013-08-23 22:10:00,
2013-08-23 18:13:00,76.6,63.1,29.97,NNE,13,0.0,8.0,63,0.00,,,0.00,meteohub,2013-08-23 22:13:00,
2013-08-23 18:15:00,76.6,63.1,29.97,North,5,0.0,8.0,63,0.00,,,0.00,meteohub,2013-08-23 22:15:00,
2013-08-23 18:18:00,76.6,63.5,29.97,North,9,4.0,8.0,64,0.00,,,0.00,meteohub,2013-08-23 22:18:00,
2013-08-23 18:19:00,76.5,63.3,29.97,NNE,18,4.0,8.0,64,0.00,,,0.00,meteohub,2013-08-23 22:19:00,
2013-08-23 18:20:00,76.5,63.3,29.97,NE,37,3.0,9.0,64,0.00,,,0.00,meteohub,2013-08-23 22:20:00,
2013-08-23 18:23:00,76.5,63.3,29.97,NW,309,1.0,9.0,64,0.00,,,0.00,meteohub,2013-08-23 22:23:00,
2013-08-23 18:24:00,76.5,63.3,29.97,North,5,1.0,9.0,64,0.00,,,0.00,meteohub,2013-08-23 22:24:00,
2013-08-23 18:25:00,76.3,63.1,29.97,NNE,14,3.0,9.0,64,0.00,,,0.00,meteohub,2013-08-23 22:25:00,
2013-08-23 18:29:00,76.3,63.7,29.97,NNE,17,2.0,9.0,65,0.00,,,0.00,meteohub,2013-08-23 22:29:00,
2013-08-23 18:31:00,76.1,63.5,29.98,NNE,32,0.0,9.0,65,0.00,,,0.00,meteohub,2013-08-23 22:31:00,
2013-08-23 18:34:00,76.1,63.5,29.98,North,355,2.0,9.0,65,0.00,,,0.00,meteohub,2013-08-23 22:34:00,
2013-08-23 18:36:00,75.9,63.7,29.98,NNE,26,5.0,5.0,66,0.00,,,0.00,meteohub,2013-08-23 22:36:00,
2013-08-23 18:37:00,75.9,63.7,29.98,NNE,28,2.0,5.0,66,0.00,,,0.00,meteohub,2013-08-23 22:37:00,
2013-08-23 18:39:00,75.9,63.7,29.97,NE,40,2.0,5.0,66,0.00,,,0.00,meteohub,2013-08-23 22:39:00,
2013-08-23 18:40:00,75.7,63.5,29.97,NW,324,2.0,5.0,66,0.00,,,0.00,meteohub,2013-08-23 22:40:00,
2013-08-23 18:41:00,75.7,64.0,29.98,NNE,30,3.0,7.0,67,0.00,,,0.00,meteohub,2013-08-23 22:41:00,
2013-08-23 18:42:00,75.7,64.0,29.98,North,10,5.0,7.0,67,0.00,,,0.00,meteohub,2013-08-23 22:42:00,
2013-08-23 18:45:00,75.6,63.9,29.98,North,9,0.0,7.0,67,0.00,,,0.00,meteohub,2013-08-23 22:45:00,
2013-08-23 18:46:00,75.6,64.2,29.98,West,265,1.0,7.0,68,0.00,,,0.00,meteohub,2013-08-23 22:46:00,
2013-08-23 18:47:00,75.6,64.2,29.98,NW,321,2.0,7.0,68,0.00,,,0.00,meteohub,2013-08-23 22:47:00,
2013-08-23 18:48:00,75.6,63.9,29.98,WNW,295,2.0,7.0,67,0.00,,,0.00,meteohub,2013-08-23 22:48:00,
2013-08-23 18:50:00,75.6,64.2,29.98,West,281,2.0,7.0,68,0.00,,,0.00,meteohub,2013-08-23 22:50:00,
2013-08-23 18:52:00,75.6,64.2,29.98,NNE,24,2.0,7.0,68,0.00,,,0.00,meteohub,2013-08-23 22:52:00,
2013-08-23 18:55:00,75.4,64.0,29.98,NNE,21,0.0,7.0,68,0.00,,,0.00,meteohub,2013-08-23 22:55:00,
2013-08-23 18:56:00,75.4,64.6,29.98,North,355,2.0,6.0,69,0.00,,,0.00,meteohub,2013-08-23 22:56:00,
2013-08-23 18:57:00,75.4,64.6,29.98,WNW,303,2.0,6.0,69,0.00,,,0.00,meteohub,2013-08-23 22:57:00,
2013-08-23 18:58:00,75.4,64.6,29.98,SW,235,1.0,6.0,69,0.00,,,0.00,meteohub,2013-08-23 22:58:00,
2013-08-23 19:00:00,75.4,64.6,29.98,NNE,23,1.0,6.0,69,0.00,,,0.00,meteohub,2013-08-23 23:00:00,
2013-08-23 19:01:00,75.2,64.4,29.98,NNE,22,1.0,6.0,69,0.00,,,0.00,meteohub,2013-08-23 23:01:00,
2013-08-23 19:02:00,75.2,64.4,29.98,NNW,346,0.0,6.0,69,0.00,,,0.00,meteohub,2013-08-23 23:02:00,
2013-08-23 19:03:00,75.2,64.4,29.98,SSW,211,1.0,6.0,69,0.00,,,0.00,meteohub,2013-08-23 23:03:00,
2013-08-23 19:05:00,75.0,64.2,29.98,North,0,0.0,6.0,69,0.00,,,0.00,meteohub,2013-08-23 23:05:00,
2013-08-23 19:06:00,75.0,63.7,29.99,West,270,1.0,6.0,68,0.00,,,0.00,meteohub,2013-08-23 23:06:00,
2013-08-23 19:07:00,75.0,63.7,29.99,WNW,301,0.0,6.0,68,0.00,,,0.00,meteohub,2013-08-23 23:07:00,
2013-08-23 19:09:00,75.0,63.7,29.99,NNW,348,0.0,6.0,68,0.00,,,0.00,meteohub,2013-08-23 23:09:00,
2013-08-23 19:10:00,75.0,64.2,29.99,North,5,2.0,5.0,69,0.00,,,0.00,meteohub,2013-08-23 23:10:00,
2013-08-23 19:11:00,75.0,64.2,29.99,North,5,1.0,5.0,69,0.00,,,0.00,meteohub,2013-08-23 23:11:00,
2013-08-23 19:12:00,75.0,64.2,29.99,North,9,3.0,5.0,69,0.00,,,0.00,meteohub,2013-08-23 23:12:00,
2013-08-23 19:14:00,74.8,64.0,29.99,NE,34,0.0,5.0,69,0.00,,,0.00,meteohub,2013-08-23 23:14:00,
2013-08-23 19:16:00,74.8,64.0,29.99,West,278,2.0,4.0,69,0.00,,,0.00,meteohub,2013-08-23 23:16:00,
2013-08-23 19:17:00,74.8,64.0,29.99,WNW,283,1.0,4.0,69,0.00,,,0.00,meteohub,2013-08-23 23:17:00,
2013-08-23 19:21:00,74.8,64.4,29.99,West,273,0.0,4.0,70,0.00,,,0.00,meteohub,2013-08-23 23:21:00,
2013-08-23 19:22:00,74.8,64.4,29.99,NW,304,1.0,4.0,70,0.00,,,0.00,meteohub,2013-08-23 23:22:00,
2013-08-23 19:23:00,74.8,64.4,29.99,NW,304,0.0,4.0,70,0.00,,,0.00,meteohub,2013-08-23 23:23:00,
2013-08-23 19:26:00,74.7,64.2,29.99,NNW,328,2.0,4.0,70,0.00,,,0.00,meteohub,2013-08-23 23:26:00,
2013-08-23 19:27:00,74.7,64.2,29.99,West,260,2.0,4.0,70,0.00,,,0.00,meteohub,2013-08-23 23:27:00,
2013-08-23 19:28:00,74.7,64.2,29.99,WSW,246,1.0,4.0,70,0.00,,,0.00,meteohub,2013-08-23 23:28:00,
2013-08-23 19:31:00,74.7,63.9,29.99,West,261,0.0,4.0,69,0.00,,,0.00,meteohub,2013-08-23 23:31:00,
2013-08-23 19:32:00,74.7,64.2,29.99,NNE,30,2.0,4.0,70,0.00,,,0.00,meteohub,2013-08-23 23:32:00,
2013-08-23 19:33:00,74.7,64.2,29.99,NNW,342,0.0,4.0,70,0.00,,,0.00,meteohub,2013-08-23 23:33:00,
2013-08-23 19:34:00,74.7,64.2,29.99,NNW,336,0.0,4.0,70,0.00,,,0.00,meteohub,2013-08-23 23:34:00,
2013-08-23 19:36:00,74.7,64.2,29.99,North,5,0.0,3.0,70,0.00,,,0.00,meteohub,2013-08-23 23:36:00,
2013-08-23 19:37:00,74.7,63.9,29.99,North,5,0.0,3.0,69,0.00,,,0.00,meteohub,2013-08-23 23:37:00,
2013-08-23 19:38:00,74.7,64.2,29.99,SW,234,0.0,3.0,70,0.00,,,0.00,meteohub,2013-08-23 23:38:00,
2013-08-23 19:39:00,74.7,64.2,29.99,North,349,2.0,3.0,70,0.00,,,0.00,meteohub,2013-08-23 23:39:00,
2013-08-23 19:41:00,74.7,63.9,29.99,West,278,1.0,3.0,69,0.00,,,0.00,meteohub,2013-08-23 23:41:00,
2013-08-23 19:42:00,74.7,64.2,29.99,West,275,1.0,3.0,70,0.00,,,0.00,meteohub,2013-08-23 23:42:00,
2013-08-23 19:43:00,74.7,64.2,29.99,WNW,298,1.0,3.0,70,0.00,,,0.00,meteohub,2013-08-23 23:43:00,
2013-08-23 19:44:00,74.7,64.2,29.99,WNW,298,0.0,3.0,70,0.00,,,0.00,meteohub,2013-08-23 23:44:00,
2013-08-23 19:47:00,74.7,64.2,30.00,NW,321,0.0,3.0,70,0.00,,,0.00,meteohub,2013-08-23 23:47:00,
2013-08-23 19:49:00,74.7,64.2,30.00,West,259,0.0,3.0,70,0.00,,,0.00,meteohub,2013-08-23 23:49:00,
2013-08-23 19:50:00,74.7,64.2,30.00,WSW,254,1.0,3.0,70,0.00,,,0.00,meteohub,2013-08-23 23:50:00,
2013-08-23 19:53:00,74.7,64.2,30.00,North,0,2.0,3.0,70,0.00,,,0.00,meteohub,2013-08-23 23:53:00,
2013-08-23 19:54:00,74.5,64.0,30.00,North,0,1.0,3.0,70,0.00,,,0.00,meteohub,2013-08-23 23:54:00,
2013-08-23 19:55:00,74.5,64.0,30.00,North,5,1.0,3.0,70,0.00,,,0.00,meteohub,2013-08-23 23:55:00,
2013-08-23 19:56:00,74.5,64.0,30.00,NE,40,3.0,3.0,70,0.00,,,0.00,meteohub,2013-08-23 23:56:00,
2013-08-23 19:58:00,74.5,64.0,30.00,NNE,16,3.0,3.0,70,0.00,,,0.00,meteohub,2013-08-23 23:58:00,
2013-08-23 19:59:00,74.5,64.0,30.00,North,5,1.0,3.0,70,0.00,,,0.00,meteohub,2013-08-23 23:59:00,
2013-08-23 20:01:00,74.5,64.0,30.00,North,5,2.0,6.0,70,0.00,,,0.00,meteohub,2013-08-24 00:01:00,
2013-08-23 20:02:00,74.5,64.0,30.00,NNW,334,3.0,6.0,70,0.00,,,0.00,meteohub,2013-08-24 00:02:00,
2013-08-23 20:03:00,74.5,64.0,30.00,NNE,16,0.0,6.0,70,0.00,,,0.00,meteohub,2013-08-24 00:03:00,
2013-08-23 20:05:00,74.5,64.0,30.00,NNE,16,2.0,6.0,70,0.00,,,0.00,meteohub,2013-08-24 00:05:00,
2013-08-23 20:07:00,74.5,64.0,30.00,NNE,13,2.0,6.0,70,0.00,,,0.00,meteohub,2013-08-24 00:07:00,
2013-08-23 20:08:00,74.3,63.9,30.00,NNE,21,0.0,6.0,70,0.00,,,0.00,meteohub,2013-08-24 00:08:00,
2013-08-23 20:10:00,74.3,63.9,30.00,NE,42,3.0,6.0,70,0.00,,,0.00,meteohub,2013-08-24 00:10:00,
2013-08-23 20:12:00,74.3,64.2,30.00,NNE,17,1.0,6.0,71,0.00,,,0.00,meteohub,2013-08-24 00:12:00,
2013-08-23 20:13:00,74.3,64.2,30.01,NNE,24,2.0,6.0,71,0.00,,,0.00,meteohub,2013-08-24 00:13:00,
2013-08-23 20:14:00,74.3,64.2,30.01,NNE,25,0.0,6.0,71,0.00,,,0.00,meteohub,2013-08-24 00:14:00,
2013-08-23 20:15:00,74.3,64.2,30.01,NNE,15,2.0,6.0,71,0.00,,,0.00,meteohub,2013-08-24 00:15:00,
2013-08-23 20:17:00,74.1,64.0,30.01,NNE,32,0.0,5.0,71,0.00,,,0.00,meteohub,2013-08-24 00:17:00,
2013-08-23 20:18:00,74.1,64.6,30.01,NNE,32,0.0,5.0,72,0.00,,,0.00,meteohub,2013-08-24 00:18:00,
2013-08-23 20:19:00,74.1,64.6,30.01,West,276,2.0,5.0,72,0.00,,,0.00,meteohub,2013-08-24 00:19:00,
2013-08-23 20:20:00,74.1,64.6,30.01,North,351,1.0,4.0,72,0.00,,,0.00,meteohub,2013-08-24 00:20:00,
2013-08-23 20:21:00,74.1,64.6,30.01,NNW,339,5.0,5.0,72,0.00,,,0.00,meteohub,2013-08-24 00:21:00,
2013-08-23 20:22:00,74.1,64.6,30.01,WNW,300,0.0,4.0,72,0.00,,,0.00,meteohub,2013-08-24 00:22:00,
2013-08-23 20:23:00,74.1,64.6,30.01,WNW,300,0.0,4.0,72,0.00,,,0.00,meteohub,2013-08-24 00:23:00,
2013-08-23 20:24:00,74.1,64.6,30.01,NW,320,0.0,4.0,72,0.00,,,0.00,meteohub,2013-08-24 00:24:00,
2013-08-23 20:26:00,74.1,64.6,30.01,NW,317,1.0,5.0,72,0.00,,,0.00,meteohub,2013-08-24 00:26:00,
2013-08-23 20:28:00,74.1,64.6,30.01,NE,36,4.0,5.0,72,0.00,,,0.00,meteohub,2013-08-24 00:28:00,
2013-08-23 20:30:00,73.9,64.4,30.01,NW,324,1.0,5.0,72,0.00,,,0.00,meteohub,2013-08-24 00:30:00,
2013-08-23 20:31:00,73.9,64.4,30.01,North,11,1.0,5.0,72,0.00,,,0.00,meteohub,2013-08-24 00:31:00,
2013-08-23 20:34:00,73.9,64.8,30.01,NW,313,1.0,5.0,73,0.00,,,0.00,meteohub,2013-08-24 00:34:00,
2013-08-23 20:35:00,73.9,64.8,30.02,NNW,344,2.0,6.0,73,0.00,,,0.00,meteohub,2013-08-24 00:35:00,
2013-08-23 20:36:00,73.9,64.8,30.02,NNE,20,2.0,6.0,73,0.00,,,0.00,meteohub,2013-08-24 00:36:00,
2013-08-23 20:37:00,73.9,64.8,30.02,NNE,13,0.0,6.0,73,0.00,,,0.00,meteohub,2013-08-24 00:37:00,
2013-08-23 20:40:00,73.8,64.6,30.02,NNE,18,1.0,6.0,73,0.00,,,0.00,meteohub,2013-08-24 00:40:00,
2013-08-23 20:41:00,73.8,64.6,30.02,NNE,19,0.0,6.0,73,0.00,,,0.00,meteohub,2013-08-24 00:41:00,
2013-08-23 20:42:00,73.8,64.6,30.02,NNE,19,1.0,6.0,73,0.00,,,0.00,meteohub,2013-08-24 00:42:00,
2013-08-23 20:45:00,73.8,64.9,30.02,NNE,17,0.0,5.0,74,0.00,,,0.00,meteohub,2013-08-24 00:45:00,
2013-08-23 20:46:00,73.8,64.9,30.02,NNE,17,0.0,5.0,74,0.00,,,0.00,meteohub,2013-08-24 00:46:00,
2013-08-23 20:48:00,73.8,64.9,30.02,NNW,344,0.0,5.0,74,0.00,,,0.00,meteohub,2013-08-24 00:48:00,
2013-08-23 20:51:00,73.8,64.9,30.02,NNW,344,0.0,5.0,74,0.00,,,0.00,meteohub,2013-08-24 00:51:00,
2013-08-23 20:52:00,73.8,65.3,30.02,NNW,344,0.0,5.0,75,0.00,,,0.00,meteohub,2013-08-24 00:52:00,
2013-08-23 20:53:00,73.8,65.3,30.02,NNW,340,1.0,5.0,75,0.00,,,0.00,meteohub,2013-08-24 00:53:00,
2013-08-23 20:56:00,73.8,65.3,30.02,NNW,346,0.0,3.0,75,0.00,,,0.00,meteohub,2013-08-24 00:56:00,
2013-08-23 20:57:00,73.6,65.1,30.02,NNW,346,0.0,3.0,75,0.00,,,0.00,meteohub,2013-08-24 00:57:00,
2013-08-23 20:58:00,73.6,65.1,30.02,NNW,346,0.0,3.0,75,0.00,,,0.00,meteohub,2013-08-24 00:58:00,
2013-08-23 20:59:00,73.6,65.1,30.02,NNW,346,0.0,3.0,75,0.00,,,0.00,meteohub,2013-08-24 00:59:00,
2013-08-23 21:01:00,73.6,65.1,30.02,NNW,346,0.0,3.0,75,0.00,,,0.00,meteohub,2013-08-24 01:01:00,
2013-08-23 21:02:00,73.6,65.1,30.02,NNW,346,0.0,3.0,75,0.00,,,0.00,meteohub,2013-08-24 01:02:00,
2013-08-23 21:03:00,73.6,65.1,30.02,NNW,346,0.0,3.0,75,0.00,,,0.00,meteohub,2013-08-24 01:03:00,
2013-08-23 21:05:00,73.6,65.5,30.02,NNW,346,0.0,3.0,76,0.00,,,0.00,meteohub,2013-08-24 01:05:00,
2013-08-23 21:06:00,73.6,65.5,30.02,NNW,346,0.0,3.0,76,0.00,,,0.00,meteohub,2013-08-24 01:06:00,
2013-08-23 21:07:00,73.6,65.5,30.02,NNW,346,0.0,3.0,76,0.00,,,0.00,meteohub,2013-08-24 01:07:00,
2013-08-23 21:09:00,73.6,65.5,30.02,NNW,346,0.0,3.0,76,0.00,,,0.00,meteohub,2013-08-24 01:09:00,
2013-08-23 21:11:00,73.6,65.5,30.02,NNW,346,0.0,1.0,76,0.00,,,0.00,meteohub,2013-08-24 01:11:00,
2013-08-23 21:12:00,73.6,65.5,30.02,NNW,346,0.0,1.0,76,0.00,,,0.00,meteohub,2013-08-24 01:12:00,
2013-08-23 21:14:00,73.4,65.3,30.02,NNW,346,0.0,1.0,76,0.00,,,0.00,meteohub,2013-08-24 01:14:00,
2013-08-23 21:16:00,73.2,65.1,30.03,NNW,346,0.0,0.0,76,0.00,,,0.00,meteohub,2013-08-24 01:16:00,
2013-08-23 21:17:00,73.2,65.1,30.03,NNW,346,0.0,0.0,76,0.00,,,0.00,meteohub,2013-08-24 01:17:00,
2013-08-23 21:18:00,73.2,65.1,30.02,NNW,346,0.0,0.0,76,0.00,,,0.00,meteohub,2013-08-24 01:18:00,
2013-08-23 21:19:00,73.2,65.1,30.03,NNW,346,0.0,0.0,76,0.00,,,0.00,meteohub,2013-08-24 01:19:00,
2013-08-23 21:21:00,73.2,65.1,30.03,NNW,346,0.0,0.0,76,0.00,,,0.00,meteohub,2013-08-24 01:21:00,
2013-08-23 21:22:00,73.0,64.9,30.03,NNW,346,0.0,0.0,76,0.00,,,0.00,meteohub,2013-08-24 01:22:00,
2013-08-23 21:23:00,73.0,64.9,30.03,NNW,346,0.0,0.0,76,0.00,,,0.00,meteohub,2013-08-24 01:23:00,
2013-08-23 21:25:00,73.0,64.9,30.03,NNW,346,0.0,0.0,76,0.00,,,0.00,meteohub,2013-08-24 01:25:00,
2013-08-23 21:27:00,73.0,64.9,30.03,NNW,346,0.0,0.0,76,0.00,,,0.00,meteohub,2013-08-24 01:27:00,
2013-08-23 21:29:00,73.0,64.9,30.03,NNW,346,0.0,0.0,76,0.00,,,0.00,meteohub,2013-08-24 01:29:00,
2013-08-23 21:30:00,72.9,64.8,30.03,NNW,346,0.0,0.0,76,0.00,,,0.00,meteohub,2013-08-24 01:30:00,
2013-08-23 21:32:00,72.9,64.8,30.03,NNW,346,0.0,0.0,76,0.00,,,0.00,meteohub,2013-08-24 01:32:00,
2013-08-23 21:33:00,72.9,64.8,30.04,NNW,346,0.0,0.0,76,0.00,,,0.00,meteohub,2013-08-24 01:33:00,
2013-08-23 21:34:00,72.9,64.8,30.04,NNW,346,0.0,0.0,76,0.00,,,0.00,meteohub,2013-08-24 01:34:00,
2013-08-23 21:35:00,72.9,65.3,30.04,NNW,346,0.0,0.0,77,0.00,,,0.00,meteohub,2013-08-24 01:35:00,
2013-08-23 21:37:00,72.9,65.3,30.04,NNW,346,0.0,0.0,77,0.00,,,0.00,meteohub,2013-08-24 01:37:00,
2013-08-23 21:38:00,72.9,65.3,30.04,NNW,346,0.0,0.0,77,0.00,,,0.00,meteohub,2013-08-24 01:38:00,
2013-08-23 21:39:00,72.9,65.3,30.04,NNW,346,0.0,0.0,77,0.00,,,0.00,meteohub,2013-08-24 01:39:00,
2013-08-23 21:40:00,72.9,65.3,30.04,NNW,346,0.0,0.0,77,0.00,,,0.00,meteohub,2013-08-24 01:40:00,
2013-08-23 21:41:00,72.7,65.1,30.04,NNW,346,0.0,0.0,77,0.00,,,0.00,meteohub,2013-08-24 01:41:00,
2013-08-23 21:43:00,72.7,65.1,30.04,NNW,330,0.0,0.0,77,0.00,,,0.00,meteohub,2013-08-24 01:43:00,
2013-08-23 21:45:00,72.7,65.1,30.04,NNW,330,0.0,0.0,77,0.00,,,0.00,meteohub,2013-08-24 01:45:00,
2013-08-23 21:46:00,72.7,65.1,30.04,NNW,330,0.0,0.0,77,0.00,,,0.00,meteohub,2013-08-24 01:46:00,
2013-08-23 21:48:00,72.7,65.1,30.04,NNW,330,0.0,0.0,77,0.00,,,0.00,meteohub,2013-08-24 01:48:00,
2013-08-23 21:50:00,72.7,65.1,30.04,NNW,330,0.0,0.0,77,0.00,,,0.00,meteohub,2013-08-24 01:50:00,
2013-08-23 21:51:00,72.7,65.1,30.04,NNW,330,0.0,0.0,77,0.00,,,0.00,meteohub,2013-08-24 01:51:00,
2013-08-23 21:53:00,72.5,64.9,30.04,NNW,330,0.0,0.0,77,0.00,,,0.00,meteohub,2013-08-24 01:53:00,
2013-08-23 21:54:00,72.5,64.9,30.04,NNW,330,0.0,0.0,77,0.00,,,0.00,meteohub,2013-08-24 01:54:00,
2013-08-23 21:55:00,72.5,64.9,30.04,NNW,330,0.0,0.0,77,0.00,,,0.00,meteohub,2013-08-24 01:55:00,
2013-08-23 21:56:00,72.5,64.9,30.04,NNW,330,0.0,0.0,77,0.00,,,0.00,meteohub,2013-08-24 01:56:00,
2013-08-23 21:57:00,72.5,64.9,30.04,NNW,330,0.0,0.0,77,0.00,,,0.00,meteohub,2013-08-24 01:57:00,
2013-08-23 21:59:00,72.5,64.9,30.04,NNW,330,0.0,0.0,77,0.00,,,0.00,meteohub,2013-08-24 01:59:00,
2013-08-23 22:00:00,72.3,64.8,30.04,NNW,330,0.0,0.0,77,0.00,,,0.00,meteohub,2013-08-24 02:00:00,
2013-08-23 22:01:00,72.3,64.8,30.04,NNW,330,0.0,0.0,77,0.00,,,0.00,meteohub,2013-08-24 02:01:00,
2013-08-23 22:02:00,72.3,64.8,30.04,NNW,330,0.0,0.0,77,0.00,,,0.00,meteohub,2013-08-24 02:02:00,
2013-08-23 22:05:00,72.3,64.8,30.04,NNW,330,0.0,0.0,77,0.00,,,0.00,meteohub,2013-08-24 02:05:00,
2013-08-23 22:06:00,72.3,64.8,30.04,NNW,330,0.0,0.0,77,0.00,,,0.00,meteohub,2013-08-24 02:06:00,
2013-08-23 22:08:00,72.3,64.8,30.04,NNW,330,0.0,0.0,77,0.00,,,0.00,meteohub,2013-08-24 02:08:00,
2013-08-23 22:10:00,72.3,64.8,30.04,NNW,330,0.0,0.0,77,0.00,,,0.00,meteohub,2013-08-24 02:10:00,
2013-08-23 22:11:00,72.3,64.8,30.04,NNW,330,0.0,0.0,77,0.00,,,0.00,meteohub,2013-08-24 02:11:00,
2013-08-23 22:13:00,72.3,64.8,30.04,NNW,330,0.0,0.0,77,0.00,,,0.00,meteohub,2013-08-24 02:13:00,
2013-08-23 22:15:00,72.3,64.8,30.04,NNW,330,0.0,0.0,77,0.00,,,0.00,meteohub,2013-08-24 02:15:00,
2013-08-23 22:16:00,72.3,64.8,30.04,NNW,330,0.0,0.0,77,0.00,,,0.00,meteohub,2013-08-24 02:16:00,
2013-08-23 22:17:00,72.3,64.8,30.04,NNW,330,0.0,0.0,77,0.00,,,0.00,meteohub,2013-08-24 02:17:00,
2013-08-23 22:18:00,72.3,65.1,30.04,NNW,330,0.0,0.0,78,0.00,,,0.00,meteohub,2013-08-24 02:18:00,
2013-08-23 22:20:00,72.3,65.1,30.04,NNW,330,0.0,0.0,78,0.00,,,0.00,meteohub,2013-08-24 02:20:00,
2013-08-23 22:21:00,72.3,65.1,30.04,NNW,330,0.0,0.0,78,0.00,,,0.00,meteohub,2013-08-24 02:21:00,
2013-08-23 22:22:00,72.3,65.1,30.04,NNW,330,0.0,0.0,78,0.00,,,0.00,meteohub,2013-08-24 02:22:00,
2013-08-23 22:24:00,72.3,65.1,30.04,NNW,330,0.0,0.0,78,0.00,,,0.00,meteohub,2013-08-24 02:24:00,
2013-08-23 22:25:00,72.3,65.1,30.04,NNW,330,0.0,0.0,78,0.00,,,0.00,meteohub,2013-08-24 02:25:00,
2013-08-23 22:27:00,72.1,64.9,30.04,NNW,330,0.0,0.0,78,0.00,,,0.00,meteohub,2013-08-24 02:27:00,
2013-08-23 22:28:00,72.1,64.9,30.04,NNW,330,0.0,0.0,78,0.00,,,0.00,meteohub,2013-08-24 02:28:00,
2013-08-23 22:29:00,72.1,64.9,30.04,NNW,330,0.0,0.0,78,0.00,,,0.00,meteohub,2013-08-24 02:29:00,
2013-08-23 22:31:00,72.1,64.9,30.04,NNW,330,1.0,0.0,78,0.00,,,0.00,meteohub,2013-08-24 02:31:00,
2013-08-23 22:32:00,72.1,64.9,30.04,NNW,330,0.0,0.0,78,0.00,,,0.00,meteohub,2013-08-24 02:32:00,
2013-08-23 22:33:00,72.1,64.9,30.04,NNW,328,1.0,0.0,78,0.00,,,0.00,meteohub,2013-08-24 02:33:00,
2013-08-23 22:35:00,72.1,64.9,30.04,WNW,297,0.0,3.0,78,0.00,,,0.00,meteohub,2013-08-24 02:35:00,
2013-08-23 22:36:00,72.1,64.9,30.04,WNW,297,2.0,3.0,78,0.00,,,0.00,meteohub,2013-08-24 02:36:00,
2013-08-23 22:37:00,72.1,64.9,30.04,WNW,297,0.0,3.0,78,0.00,,,0.00,meteohub,2013-08-24 02:37:00,
2013-08-23 22:38:00,72.1,64.9,30.04,WNW,297,0.0,3.0,78,0.00,,,0.00,meteohub,2013-08-24 02:38:00,
2013-08-23 22:40:00,72.1,64.9,30.04,WNW,297,2.0,4.0,78,0.00,,,0.00,meteohub,2013-08-24 02:40:00,
2013-08-23 22:41:00,72.0,64.8,30.04,WNW,297,1.0,4.0,78,0.00,,,0.00,meteohub,2013-08-24 02:41:00,
2013-08-23 22:42:00,72.0,64.8,30.04,WNW,297,2.0,4.0,78,0.00,,,0.00,meteohub,2013-08-24 02:42:00,
2013-08-23 22:43:00,72.0,65.1,30.04,WNW,297,0.0,4.0,79,0.00,,,0.00,meteohub,2013-08-24 02:43:00,
2013-08-23 22:45:00,72.0,65.1,30.04,WNW,297,0.0,4.0,79,0.00,,,0.00,meteohub,2013-08-24 02:45:00,
2013-08-23 22:47:00,72.0,65.1,30.04,WNW,297,2.0,4.0,79,0.00,,,0.00,meteohub,2013-08-24 02:47:00,
2013-08-23 22:48:00,71.8,64.9,30.04,WNW,297,0.0,4.0,79,0.00,,,0.00,meteohub,2013-08-24 02:48:00,
2013-08-23 22:49:00,71.8,64.9,30.04,WNW,297,1.0,4.0,79,0.00,,,0.00,meteohub,2013-08-24 02:49:00,
2013-08-23 22:51:00,71.8,64.9,30.04,WNW,297,0.0,3.0,79,0.00,,,0.00,meteohub,2013-08-24 02:51:00,
2013-08-23 22:52:00,71.8,64.9,30.05,WNW,297,0.0,3.0,79,0.00,,,0.00,meteohub,2013-08-24 02:52:00,
2013-08-23 22:53:00,71.8,64.9,30.05,WNW,297,2.0,3.0,79,0.00,,,0.00,meteohub,2013-08-24 02:53:00,
2013-08-23 22:54:00,71.8,64.9,30.05,WNW,297,0.0,3.0,79,0.00,,,0.00,meteohub,2013-08-24 02:54:00,
2013-08-23 22:56:00,71.6,64.8,30.05,WNW,297,1.0,3.0,79,0.00,,,0.00,meteohub,2013-08-24 02:56:00,
2013-08-23 22:58:00,71.6,64.8,30.05,WNW,297,1.0,3.0,79,0.00,,,0.00,meteohub,2013-08-24 02:58:00,
2013-08-23 23:00:00,71.4,64.6,30.05,WNW,297,0.0,3.0,79,0.00,,,0.00,meteohub,2013-08-24 03:00:00,
2013-08-23 23:01:00,71.4,64.6,30.05,WNW,297,0.0,3.0,79,0.00,,,0.00,meteohub,2013-08-24 03:01:00,
2013-08-23 23:03:00,71.4,64.6,30.05,WNW,297,2.0,3.0,79,0.00,,,0.00,meteohub,2013-08-24 03:03:00,
2013-08-23 23:04:00,71.4,64.6,30.05,WNW,297,0.0,3.0,79,0.00,,,0.00,meteohub,2013-08-24 03:04:00,
2013-08-23 23:05:00,71.4,64.6,30.05,WNW,297,0.0,2.0,79,0.00,,,0.00,meteohub,2013-08-24 03:05:00,
2013-08-23 23:06:00,71.4,64.6,30.05,WNW,297,0.0,2.0,79,0.00,,,0.00,meteohub,2013-08-24 03:06:00,
2013-08-23 23:07:00,71.4,64.6,30.05,WNW,297,1.0,2.0,79,0.00,,,0.00,meteohub,2013-08-24 03:07:00,
2013-08-23 23:08:00,71.2,64.4,30.05,WNW,297,1.0,2.0,79,0.00,,,0.00,meteohub,2013-08-24 03:08:00,
2013-08-23 23:09:00,71.2,64.4,30.05,WNW,297,2.0,2.0,79,0.00,,,0.00,meteohub,2013-08-24 03:09:00,
2013-08-23 23:10:00,71.2,64.4,30.05,WNW,297,1.0,2.0,79,0.00,,,0.00,meteohub,2013-08-24 03:10:00,
2013-08-23 23:12:00,71.2,64.4,30.05,WNW,297,1.0,2.0,79,0.00,,,0.00,meteohub,2013-08-24 03:12:00,
2013-08-23 23:13:00,71.2,64.4,30.05,WNW,297,1.0,2.0,79,0.00,,,0.00,meteohub,2013-08-24 03:13:00,
2013-08-23 23:14:00,71.2,64.4,30.05,WNW,297,2.0,2.0,79,0.00,,,0.00,meteohub,2013-08-24 03:14:00,
2013-08-23 23:16:00,71.2,64.4,30.05,WNW,297,1.0,3.0,79,0.00,,,0.00,meteohub,2013-08-24 03:16:00,
2013-08-23 23:17:00,71.1,64.6,30.05,WNW,297,0.0,3.0,80,0.00,,,0.00,meteohub,2013-08-24 03:17:00,
2013-08-23 23:18:00,71.1,64.6,30.05,WNW,297,1.0,3.0,80,0.00,,,0.00,meteohub,2013-08-24 03:18:00,
2013-08-23 23:19:00,71.1,64.6,30.05,WNW,297,1.0,3.0,80,0.00,,,0.00,meteohub,2013-08-24 03:19:00,
2013-08-23 23:21:00,71.1,64.6,30.05,WNW,297,0.0,3.0,80,0.00,,,0.00,meteohub,2013-08-24 03:21:00,
2013-08-23 23:22:00,71.1,64.6,30.05,WNW,297,0.0,3.0,80,0.00,,,0.00,meteohub,2013-08-24 03:22:00,
2013-08-23 23:23:00,71.1,64.6,30.05,WNW,297,0.0,3.0,80,0.00,,,0.00,meteohub,2013-08-24 03:23:00,
2013-08-23 23:24:00,70.9,64.4,30.05,WNW,297,0.0,3.0,80,0.00,,,0.00,meteohub,2013-08-24 03:24:00,
2013-08-23 23:26:00,70.9,64.4,30.05,WNW,297,0.0,3.0,80,0.00,,,0.00,meteohub,2013-08-24 03:26:00,
2013-08-23 23:28:00,70.9,64.4,30.05,WNW,297,0.0,3.0,80,0.00,,,0.00,meteohub,2013-08-24 03:28:00,
2013-08-23 23:29:00,70.9,64.4,30.05,WNW,297,0.0,3.0,80,0.00,,,0.00,meteohub,2013-08-24 03:29:00,
2013-08-23 23:31:00,70.7,64.2,30.05,WNW,297,0.0,3.0,80,0.00,,,0.00,meteohub,2013-08-24 03:31:00,
2013-08-23 23:33:00,70.5,64.4,30.05,WNW,297,0.0,3.0,81,0.00,,,0.00,meteohub,2013-08-24 03:33:00,
2013-08-23 23:34:00,70.5,64.4,30.05,WNW,297,0.0,3.0,81,0.00,,,0.00,meteohub,2013-08-24 03:34:00,
2013-08-23 23:35:00,70.5,64.4,30.05,WNW,297,0.0,2.0,81,0.00,,,0.00,meteohub,2013-08-24 03:35:00,
2013-08-23 23:36:00,70.5,64.4,30.05,WNW,297,0.0,2.0,81,0.00,,,0.00,meteohub,2013-08-24 03:36:00,
2013-08-23 23:38:00,70.5,64.4,30.05,WNW,297,0.0,2.0,81,0.00,,,0.00,meteohub,2013-08-24 03:38:00,
2013-08-23 23:39:00,70.5,64.4,30.05,WNW,297,0.0,2.0,81,0.00,,,0.00,meteohub,2013-08-24 03:39:00,
2013-08-23 23:40:00,70.3,64.2,30.05,WNW,297,0.0,1.0,81,0.00,,,0.00,meteohub,2013-08-24 03:40:00,
2013-08-23 23:41:00,70.3,64.2,30.05,WNW,297,0.0,1.0,81,0.00,,,0.00,meteohub,2013-08-24 03:41:00,
2013-08-23 23:43:00,70.3,64.2,30.05,WNW,297,0.0,1.0,81,0.00,,,0.00,meteohub,2013-08-24 03:43:00,
2013-08-23 23:44:00,70.3,64.2,30.05,WNW,297,0.0,1.0,81,0.00,,,0.00,meteohub,2013-08-24 03:44:00,
2013-08-23 23:45:00,70.3,64.2,30.05,WNW,297,0.0,1.0,81,0.00,,,0.00,meteohub,2013-08-24 03:45:00,
2013-08-23 23:46:00,70.3,64.2,30.05,WNW,297,0.0,1.0,81,0.00,,,0.00,meteohub,2013-08-24 03:46:00,
2013-08-23 23:47:00,70.3,64.2,30.05,WNW,297,0.0,1.0,81,0.00,,,0.00,meteohub,2013-08-24 03:47:00,
2013-08-23 23:48:00,70.3,64.2,30.05,WNW,297,0.0,1.0,81,0.00,,,0.00,meteohub,2013-08-24 03:48:00,
2013-08-23 23:50:00,70.3,64.2,30.05,WNW,297,0.0,1.0,81,0.00,,,0.00,meteohub,2013-08-24 03:50:00,
2013-08-23 23:51:00,70.2,64.0,30.05,WNW,297,0.0,1.0,81,0.00,,,0.00,meteohub,2013-08-24 03:51:00,
2013-08-23 23:52:00,70.3,64.2,30.05,WNW,297,0.0,1.0,81,0.00,,,0.00,meteohub,2013-08-24 03:52:00,
2013-08-23 23:53:00,70.3,64.2,30.05,WNW,297,0.0,1.0,81,0.00,,,0.00,meteohub,2013-08-24 03:53:00,
2013-08-23 23:55:00,70.2,64.0,30.05,WNW,297,0.0,1.0,81,0.00,,,0.00,meteohub,2013-08-24 03:55:00,
2013-08-23 23:56:00,70.2,64.0,30.05,WNW,297,0.0,1.0,81,0.00,,,0.00,meteohub,2013-08-24 03:56:00,
2013-08-23 23:57:00,70.2,64.4,30.05,WNW,297,0.0,1.0,82,0.00,,,0.00,meteohub,2013-08-24 03:57:00,
2013-08-23 23:59:00,70.2,64.4,30.06,WNW,297,0.0,1.0,82,0.00,,,0.00,meteohub,2013-08-24 03:59:00,